Wetterdaten: Donnerstag, 26.07.2018
Datum Zeit Temp. Aussen Temp. o. S. +5cm Feuchte Auss Luftdruck Regen Sonnenschein Regendauer Solar Windben Empfang
26.07.2018 00:00 24,7 C 22,8 C 22,8 C 73 % 1013,0 hPa 0,0 l/m 0 min 0 min 0 W/m 4,5 km/h (1 Bft) 97,87 %
26.07.2018 00:02 24,7 C 22,8 C 22,8 C 73 % 1013,1 hPa 0,0 l/m 0 min 0 min 0 W/m 2,3 km/h (1 Bft) 11,76 %
26.07.2018 00:04 24,6 C 22,8 C 22,8 C 73 % 1013,0 hPa 0,0 l/m 0 min 0 min 0 W/m 2,3 km/h (1 Bft) 85,71 %
26.07.2018 00:08 24,5 C 22,8 C 22,8 C 73 % 1013,0 hPa 0,0 l/m 0 min 0 min 0 W/m 2,3 km/h (1 Bft) 95,79 %
26.07.2018 00:10 24,4 C 22,8 C 22,8 C 73 % 1013,0 hPa 0,0 l/m 0 min 0 min 0 W/m 2,3 km/h (1 Bft) 97,87 %
26.07.2018 00:12 24,4 C 22,8 C 22,8 C 73 % 1013,0 hPa 0,0 l/m 0 min 0 min 0 W/m 4,5 km/h (1 Bft) 100,00 %
26.07.2018 00:14 24,4 C 22,8 C 22,8 C 73 % 1013,0 hPa 0,0 l/m 0 min 0 min 0 W/m 2,3 km/h (1 Bft) 95,74 %
26.07.2018 00:16 24,4 C 23,3 C 22,8 C 73 % 1013,0 hPa 0,0 l/m 0 min 0 min 0 W/m 9,0 km/h (2 Bft) 95,74 %
26.07.2018 00:18 24,3 C 23,3 C 22,8 C 73 % 1013,1 hPa 0,0 l/m 0 min 0 min 0 W/m 6,8 km/h (2 Bft) 95,65 %
26.07.2018 00:20 24,3 C 23,3 C 23,3 C 73 % 1013,1 hPa 0,0 l/m 0 min 0 min 0 W/m 4,5 km/h (1 Bft) 93,62 %
26.07.2018 00:22 24,3 C 23,3 C 23,3 C 73 % 1013,1 hPa 0,0 l/m 0 min 0 min 0 W/m 6,8 km/h (2 Bft) 95,74 %
26.07.2018 00:24 24,3 C 23,3 C 23,3 C 73 % 1013,0 hPa 0,0 l/m 0 min 0 min 0 W/m 4,5 km/h (1 Bft) 95,74 %
26.07.2018 00:26 24,2 C 23,3 C 23,3 C 73 % 1013,0 hPa 0,0 l/m 0 min 0 min 0 W/m 4,5 km/h (1 Bft) 95,74 %
26.07.2018 00:28 24,2 C 23,3 C 23,3 C 73 % 1013,0 hPa 0,0 l/m 0 min 0 min 0 W/m 4,5 km/h (1 Bft) 97,87 %
26.07.2018 00:30 24,2 C 23,3 C 23,3 C 73 % 1013,0 hPa 0,0 l/m 0 min 0 min 0 W/m 4,5 km/h (1 Bft) 97,83 %
26.07.2018 00:32 24,2 C 23,3 C 22,8 C 73 % 1013,1 hPa 0,0 l/m 0 min 0 min 0 W/m 4,5 km/h (1 Bft) 97,87 %
26.07.2018 00:34 24,2 C 23,3 C 22,8 C 73 % 1013,0 hPa 0,0 l/m 0 min 0 min 0 W/m 2,3 km/h (1 Bft) 95,74 %
26.07.2018 00:36 24,2 C 23,3 C 22,8 C 73 % 1013,1 hPa 0,0 l/m 0 min 0 min 0 W/m 2,3 km/h (1 Bft) 97,87 %
26.07.2018 00:38 24,2 C 22,8 C 22,8 C 74 % 1013,1 hPa 0,0 l/m 0 min 0 min 0 W/m 4,5 km/h (1 Bft) 95,74 %
26.07.2018 00:40 24,2 C 23,3 C 22,8 C 74 % 1013,1 hPa 0,0 l/m 0 min 0 min 0 W/m 4,5 km/h (1 Bft) 95,74 %
26.07.2018 00:42 24,2 C 23,3 C 22,8 C 74 % 1013,1 hPa 0,0 l/m 0 min 0 min 0 W/m 4,5 km/h (1 Bft) 95,65 %
26.07.2018 00:44 24,2 C 22,8 C 22,8 C 74 % 1013,0 hPa 0,0 l/m 0 min 0 min 0 W/m 2,3 km/h (1 Bft) 95,74 %
26.07.2018 00:46 24,1 C 22,8 C 22,8 C 74 % 1013,1 hPa 0,0 l/m 0 min 0 min 0 W/m 2,3 km/h (1 Bft) 95,74 %
26.07.2018 00:48 24,1 C 22,8 C 22,8 C 74 % 1013,1 hPa 0,0 l/m 0 min 0 min 0 W/m 2,3 km/h (1 Bft) 97,87 %
26.07.2018 00:50 24,1 C 22,8 C 22,8 C 74 % 1013,1 hPa 0,0 l/m 0 min 0 min 0 W/m 0,0 km/h (0 Bft) 97,87 %
26.07.2018 00:52 24,1 C 22,8 C 22,8 C 74 % 1013,1 hPa 0,0 l/m 0 min 0 min 0 W/m 2,3 km/h (1 Bft) 97,87 %
26.07.2018 00:54 24,1 C 22,8 C 22,8 C 74 % 1013,1 hPa 0,0 l/m 0 min 0 min 0 W/m 0,0 km/h (0 Bft) 97,83 %
26.07.2018 00:56 24,1 C 22,8 C 22,2 C 74 % 1013,1 hPa 0,0 l/m 0 min 0 min 0 W/m 0,0 km/h (0 Bft) 95,74 %
26.07.2018 00:58 24,1 C 22,8 C 22,2 C 75 % 1013,1 hPa 0,0 l/m 0 min 0 min 0 W/m 0,0 km/h (0 Bft) 97,87 %
26.07.2018 01:00 24,1 C 22,8 C 22,2 C 75 % 1013,0 hPa 0,0 l/m 0 min 0 min 0 W/m 0,0 km/h (0 Bft) 97,87 %
26.07.2018 01:02 24,0 C 22,2 C 22,2 C 75 % 1013,0 hPa 0,0 l/m 0 min 0 min 0 W/m 0,0 km/h (0 Bft) 100,00 %
26.07.2018 01:04 24,0 C 22,2 C 22,2 C 75 % 1013,1 hPa 0,0 l/m 0 min 0 min 0 W/m 0,0 km/h (0 Bft) 100,00 %
26.07.2018 01:06 24,0 C 22,2 C 22,2 C 75 % 1013,1 hPa 0,0 l/m 0 min 0 min 0 W/m 0,0 km/h (0 Bft) 100,00 %
26.07.2018 01:08 23,9 C 22,2 C 22,2 C 75 % 1013,1 hPa 0,0 l/m 0 min 0 min 0 W/m 0,0 km/h (0 Bft) 100,00 %
26.07.2018 01:10 23,9 C 22,2 C 21,7 C 75 % 1013,1 hPa 0,0 l/m 0 min 0 min 0 W/m 4,5 km/h (1 Bft) 95,74 %
26.07.2018 01:12 23,9 C 22,2 C 21,7 C 75 % 1013,1 hPa 0,0 l/m 0 min 0 min 0 W/m 4,5 km/h (1 Bft) 100,00 %
26.07.2018 01:14 23,9 C 22,2 C 21,7 C 75 % 1013,1 hPa 0,0 l/m 0 min 0 min 0 W/m 4,5 km/h (1 Bft) 100,00 %
26.07.2018 01:16 23,8 C 22,2 C 21,7 C 75 % 1013,0 hPa 0,0 l/m 0 min 0 min 0 W/m 4,5 km/h (1 Bft) 100,00 %
26.07.2018 01:18 23,8 C 22,2 C 21,7 C 75 % 1013,0 hPa 0,0 l/m 0 min 0 min 0 W/m 0,0 km/h (0 Bft) 100,00 %
26.07.2018 01:20 23,8 C 22,2 C 21,7 C 75 % 1013,1 hPa 0,0 l/m 0 min 0 min 0 W/m 0,0 km/h (0 Bft) 97,87 %
26.07.2018 01:22 23,8 C 22,2 C 21,7 C 75 % 1013,1 hPa 0,0 l/m 0 min 0 min 0 W/m 2,3 km/h (1 Bft) 97,87 %
26.07.2018 01:24 23,7 C 22,2 C 21,7 C 76 % 1013,1 hPa 0,0 l/m 0 min 0 min 0 W/m 0,0 km/h (0 Bft) 100,00 %
26.07.2018 01:26 23,7 C 21,7 C 21,7 C 76 % 1013,0 hPa 0,0 l/m 0 min 0 min 0 W/m 0,0 km/h (0 Bft) 100,00 %
26.07.2018 01:28 23,7 C 21,7 C 21,7 C 76 % 1013,0 hPa 0,0 l/m 0 min 0 min 0 W/m 0,0 km/h (0 Bft) 100,00 %
26.07.2018 01:30 23,6 C 21,7 C 21,7 C 76 % 1013,0 hPa 0,0 l/m 0 min 0 min 0 W/m 0,0 km/h (0 Bft) 97,87 %
26.07.2018 01:32 23,6 C 21,7 C 21,7 C 76 % 1013,0 hPa 0,0 l/m 0 min 0 min 0 W/m 0,0 km/h (0 Bft) 97,87 %
26.07.2018 01:34 23,6 C 21,7 C 21,7 C 77 % 1013,0 hPa 0,0 l/m 0 min 0 min 0 W/m 0,0 km/h (0 Bft) 100,00 %
26.07.2018 01:36 23,5 C 21,7 C 21,1 C 77 % 1013,1 hPa 0,0 l/m 0 min 0 min 0 W/m 0,0 km/h (0 Bft) 100,00 %
26.07.2018 01:38 23,5 C 21,7 C 21,1 C 77 % 1013,0 hPa 0,0 l/m 0 min 0 min 0 W/m 0,0 km/h (0 Bft) 97,87 %
26.07.2018 01:40 23,4 C 21,1 C 21,1 C 77 % 1012,9 hPa 0,0 l/m 0 min 0 min 0 W/m 0,0 km/h (0 Bft) 100,00 %
26.07.2018 01:42 23,4 C 21,1 C 21,1 C 77 % 1013,1 hPa 0,0 l/m 0 min 0 min 0 W/m 0,0 km/h (0 Bft) 97,87 %
26.07.2018 01:44 23,3 C 21,1 C 21,1 C 77 % 1013,1 hPa 0,0 l/m 0 min 0 min 0 W/m 0,0 km/h (0 Bft) 100,00 %
26.07.2018 01:46 23,3 C 21,1 C 21,1 C 77 % 1013,0 hPa 0,0 l/m 0 min 0 min 0 W/m 0,0 km/h (0 Bft) 97,87 %
26.07.2018 01:48 23,3 C 21,7 C 21,1 C 77 % 1013,0 hPa 0,0 l/m 0 min 0 min 0 W/m 0,0 km/h (0 Bft) 97,87 %
26.07.2018 01:50 23,2 C 21,1 C 21,1 C 77 % 1012,9 hPa 0,0 l/m 0 min 0 min 0 W/m 0,0 km/h (0 Bft) 100,00 %
26.07.2018 01:52 23,2 C 21,7 C 21,1 C 77 % 1012,9 hPa 0,0 l/m 0 min 0 min 0 W/m 2,3 km/h (1 Bft) 100,00 %
26.07.2018 01:54 23,2 C 21,1 C 21,1 C 77 % 1013,0 hPa 0,0 l/m 0 min 0 min 0 W/m 2,3 km/h (1 Bft) 100,00 %
26.07.2018 01:56 23,1 C 21,1 C 21,1 C 77 % 1012,9 hPa 0,0 l/m 0 min 0 min 0 W/m 0,0 km/h (0 Bft) 97,87 %
26.07.2018 01:58 23,1 C 21,1 C 21,1 C 78 % 1013,0 hPa 0,0 l/m 0 min 0 min 0 W/m 0,0 km/h (0 Bft) 100,00 %
26.07.2018 02:00 23,1 C 21,1 C 21,1 C 78 % 1012,9 hPa 0,0 l/m 0 min 0 min 0 W/m 0,0 km/h (0 Bft) 97,87 %
26.07.2018 02:02 23,0 C 21,1 C 21,1 C 78 % 1012,9 hPa 0,0 l/m 0 min 0 min 0 W/m 0,0 km/h (0 Bft) 97,87 %
26.07.2018 02:04 22,9 C 21,1 C 21,1 C 78 % 1013,0 hPa 0,0 l/m 0 min 0 min 0 W/m 0,0 km/h (0 Bft) 97,83 %
26.07.2018 02:06 22,9 C 21,1 C 21,1 C 78 % 1013,0 hPa 0,0 l/m 0 min 0 min 0 W/m 0,0 km/h (0 Bft) 97,87 %
26.07.2018 02:08 22,9 C 21,1 C 21,1 C 78 % 1013,0 hPa 0,0 l/m 0 min 0 min 0 W/m 0,0 km/h (0 Bft) 97,87 %
26.07.2018 02:10 22,8 C 21,1 C 20,6 C 78 % 1012,9 hPa 0,0 l/m 0 min 0 min 0 W/m 0,0 km/h (0 Bft) 97,87 %
26.07.2018 02:12 22,8 C 21,1 C 20,6 C 78 % 1012,8 hPa 0,0 l/m 0 min 0 min 0 W/m 0,0 km/h (0 Bft) 97,87 %
26.07.2018 02:14 22,8 C 21,1 C 20,6 C 79 % 1012,8 hPa 0,0 l/m 0 min 0 min 0 W/m 0,0 km/h (0 Bft) 97,87 %
26.07.2018 02:16 22,7 C 21,1 C 20,6 C 78 % 1012,8 hPa 0,0 l/m 0 min 0 min 0 W/m 0,0 km/h (0 Bft) 97,83 %
26.07.2018 02:18 22,7 C 21,1 C 20,6 C 78 % 1012,8 hPa 0,0 l/m 0 min 0 min 0 W/m 0,0 km/h (0 Bft) 97,87 %
26.07.2018 02:20 22,7 C 21,1 C 20,6 C 78 % 1012,8 hPa 0,0 l/m 0 min 0 min 0 W/m 0,0 km/h (0 Bft) 97,87 %
26.07.2018 02:22 22,6 C 21,1 C 20,6 C 78 % 1012,8 hPa 0,0 l/m 0 min 0 min 0 W/m 0,0 km/h (0 Bft) 95,74 %
26.07.2018 02:24 22,6 C 21,1 C 20,6 C 79 % 1012,8 hPa 0,0 l/m 0 min 0 min 0 W/m 0,0 km/h (0 Bft) 97,87 %
26.07.2018 02:26 22,6 C 21,1 C 20,6 C 79 % 1012,7 hPa 0,0 l/m 0 min 0 min 0 W/m 0,0 km/h (0 Bft) 97,83 %
26.07.2018 02:28 22,6 C 21,1 C 20,6 C 79 % 1012,8 hPa 0,0 l/m 0 min 0 min 0 W/m 0,0 km/h (0 Bft) 93,62 %
26.07.2018 02:30 22,5 C 21,1 C 20,6 C 79 % 1012,8 hPa 0,0 l/m 0 min 0 min 0 W/m 0,0 km/h (0 Bft) 97,87 %
26.07.2018 02:32 22,5 C 20,6 C 20,6 C 79 % 1012,8 hPa 0,0 l/m 0 min 0 min 0 W/m 0,0 km/h (0 Bft) 97,87 %
26.07.2018 02:34 22,4 C 20,6 C 20,6 C 79 % 1012,8 hPa 0,0 l/m 0 min 0 min 0 W/m 0,0 km/h (0 Bft) 97,87 %
26.07.2018 02:36 22,4 C 20,6 C 20,6 C 79 % 1012,8 hPa 0,0 l/m 0 min 0 min 0 W/m 0,0 km/h (0 Bft) 97,92 %
26.07.2018 02:38 22,4 C 20,6 C 20,6 C 79 % 1012,8 hPa 0,0 l/m 0 min 0 min 0 W/m 0,0 km/h (0 Bft) 95,74 %
26.07.2018 02:40 22,3 C 20,6 C 20,6 C 79 % 1012,9 hPa 0,0 l/m 0 min 0 min 0 W/m 0,0 km/h (0 Bft) 97,83 %
26.07.2018 02:42 22,3 C 20,6 C 20,6 C 79 % 1012,8 hPa 0,0 l/m 0 min 0 min 0 W/m 0,0 km/h (0 Bft) 97,87 %
26.07.2018 02:44 22,3 C 20,6 C 20,6 C 79 % 1012,7 hPa 0,0 l/m 0 min 0 min 0 W/m 0,0 km/h (0 Bft) 97,87 %
26.07.2018 02:46 22,2 C 20,6 C 20,6 C 79 % 1012,8 hPa 0,0 l/m 0 min 0 min 0 W/m 0,0 km/h (0 Bft) 93,62 %
26.07.2018 02:48 22,2 C 20,6 C 20,6 C 79 % 1012,7 hPa 0,0 l/m 0 min 0 min 0 W/m 0,0 km/h (0 Bft) 97,87 %
26.07.2018 02:50 22,2 C 20,6 C 20,6 C 79 % 1012,8 hPa 0,0 l/m 0 min 0 min 0 W/m 0,0 km/h (0 Bft) 100,00 %
26.07.2018 02:52 22,2 C 20,6 C 20,6 C 79 % 1012,8 hPa 0,0 l/m 0 min 0 min 0 W/m 0,0 km/h (0 Bft) 100,00 %
26.07.2018 02:54 22,2 C 20,6 C 20,6 C 79 % 1012,8 hPa 0,0 l/m 0 min 0 min 0 W/m 0,0 km/h (0 Bft) 100,00 %
26.07.2018 02:56 22,1 C 20,6 C 20,6 C 79 % 1012,7 hPa 0,0 l/m 0 min 0 min 0 W/m 0,0 km/h (0 Bft) 100,00 %
26.07.2018 02:58 22,1 C 20,6 C 20,6 C 79 % 1012,7 hPa 0,0 l/m 0 min 0 min 0 W/m 0,0 km/h (0 Bft) 100,00 %
26.07.2018 03:00 22,1 C 20,6 C 20,6 C 79 % 1012,7 hPa 0,0 l/m 0 min 0 min 0 W/m 0,0 km/h (0 Bft) 93,62 %
26.07.2018 03:02 22,1 C 20,6 C 20,6 C 80 % 1012,8 hPa 0,0 l/m 0 min 0 min 0 W/m 0,0 km/h (0 Bft) 95,74 %
26.07.2018 03:04 22,0 C 20,6 C 20,6 C 80 % 1012,8 hPa 0,0 l/m 0 min 0 min 0 W/m 0,0 km/h (0 Bft) 95,74 %
26.07.2018 03:06 22,0 C 20,6 C 20,6 C 80 % 1012,7 hPa 0,0 l/m 0 min 0 min 0 W/m 0,0 km/h (0 Bft) 95,74 %
26.07.2018 03:08 21,9 C 20,6 C 20,6 C 80 % 1012,7 hPa 0,0 l/m 0 min 0 min 0 W/m 0,0 km/h (0 Bft) 95,74 %
26.07.2018 03:10 21,9 C 20,6 C 20,6 C 80 % 1012,7 hPa 0,0 l/m 0 min 0 min 0 W/m 0,0 km/h (0 Bft) 95,65 %
26.07.2018 03:12 21,9 C 20,6 C 20,6 C 80 % 1012,6 hPa 0,0 l/m 0 min 0 min 0 W/m 0,0 km/h (0 Bft) 95,74 %
26.07.2018 03:14 21,9 C 20,6 C 20,6 C 80 % 1012,6 hPa 0,0 l/m 0 min 0 min 0 W/m 2,3 km/h (1 Bft) 95,74 %
26.07.2018 03:16 21,9 C 20,6 C 20,0 C 80 % 1012,6 hPa 0,0 l/m 0 min 0 min 0 W/m 0,0 km/h (0 Bft) 93,62 %
26.07.2018 03:18 21,9 C 20,6 C 20,0 C 80 % 1012,6 hPa 0,0 l/m 0 min 0 min 0 W/m 2,3 km/h (1 Bft) 95,74 %
26.07.2018 03:20 21,8 C 20,0 C 20,0 C 81 % 1012,5 hPa 0,0 l/m 0 min 0 min 0 W/m 0,0 km/h (0 Bft) 95,74 %
26.07.2018 03:22 21,8 C 20,0 C 20,0 C 81 % 1012,5 hPa 0,0 l/m 0 min 0 min 0 W/m 0,0 km/h (0 Bft) 95,65 %
26.07.2018 03:24 21,8 C 20,0 C 20,6 C 81 % 1012,6 hPa 0,0 l/m 0 min 0 min 0 W/m 0,0 km/h (0 Bft) 95,74 %
26.07.2018 03:26 21,8 C 20,0 C 20,6 C 81 % 1012,5 hPa 0,0 l/m 0 min 0 min 0 W/m 0,0 km/h (0 Bft) 95,74 %
26.07.2018 03:28 21,8 C 20,0 C 20,6 C 81 % 1012,6 hPa 0,0 l/m 0 min 0 min 0 W/m 0,0 km/h (0 Bft) 95,74 %
26.07.2018 03:30 21,7 C 20,6 C 20,6 C 81 % 1012,6 hPa 0,0 l/m 0 min 0 min 0 W/m 0,0 km/h (0 Bft) 95,74 %
26.07.2018 03:32 21,7 C 20,6 C 20,0 C 81 % 1012,6 hPa 0,0 l/m 0 min 0 min 0 W/m 0,0 km/h (0 Bft) 95,74 %
26.07.2018 03:34 21,7 C 20,0 C 20,0 C 81 % 1012,6 hPa 0,0 l/m 0 min 0 min 0 W/m 0,0 km/h (0 Bft) 91,30 %
26.07.2018 03:36 21,7 C 20,0 C 20,0 C 81 % 1012,6 hPa 0,0 l/m 0 min 0 min 0 W/m 0,0 km/h (0 Bft) 95,74 %
26.07.2018 03:38 21,7 C 20,6 C 20,0 C 81 % 1012,6 hPa 0,0 l/m 0 min 0 min 0 W/m 0,0 km/h (0 Bft) 93,62 %
26.07.2018 03:40 21,6 C 20,6 C 20,0 C 81 % 1012,6 hPa 0,0 l/m 0 min 0 min 0 W/m 0,0 km/h (0 Bft) 95,74 %
26.07.2018 03:42 21,6 C 20,6 C 20,0 C 81 % 1012,6 hPa 0,0 l/m 0 min 0 min 0 W/m 0,0 km/h (0 Bft) 95,74 %
26.07.2018 03:44 21,6 C 20,6 C 20,0 C 81 % 1012,6 hPa 0,0 l/m 0 min 0 min 0 W/m 0,0 km/h (0 Bft) 97,87 %
26.07.2018 03:46 21,6 C 20,0 C 20,0 C 81 % 1012,6 hPa 0,0 l/m 0 min 0 min 0 W/m 0,0 km/h (0 Bft) 97,87 %
26.07.2018 03:48 21,6 C 20,0 C 20,0 C 81 % 1012,6 hPa 0,0 l/m 0 min 0 min 0 W/m 0,0 km/h (0 Bft) 97,87 %
26.07.2018 03:50 21,5 C 20,0 C 20,0 C 81 % 1012,6 hPa 0,0 l/m 0 min 0 min 0 W/m 0,0 km/h (0 Bft) 97,87 %
26.07.2018 03:52 21,5 C 20,0 C 20,0 C 81 % 1012,7 hPa 0,0 l/m 0 min 0 min 0 W/m 0,0 km/h (0 Bft) 93,62 %
26.07.2018 03:54 21,5 C 20,0 C 20,0 C 81 % 1012,6 hPa 0,0 l/m 0 min 0 min 0 W/m 0,0 km/h (0 Bft) 97,87 %
26.07.2018 03:56 21,4 C 20,0 C 20,0 C 82 % 1012,6 hPa 0,0 l/m 0 min 0 min 0 W/m 0,0 km/h (0 Bft) 97,83 %
26.07.2018 03:58 21,4 C 20,0 C 20,0 C 82 % 1012,7 hPa 0,0 l/m 0 min 0 min 0 W/m 0,0 km/h (0 Bft) 97,87 %
26.07.2018 04:00 21,4 C 20,0 C 20,0 C 82 % 1012,6 hPa 0,0 l/m 0 min 0 min 0 W/m 0,0 km/h (0 Bft) 93,62 %
26.07.2018 04:02 21,4 C 20,0 C 20,0 C 82 % 1012,6 hPa 0,0 l/m 0 min 0 min 0 W/m 0,0 km/h (0 Bft) 100,00 %
26.07.2018 04:04 21,4 C 20,0 C 20,0 C 82 % 1012,7 hPa 0,0 l/m 0 min 0 min 0 W/m 0,0 km/h (0 Bft) 95,74 %
26.07.2018 04:06 21,3 C 20,0 C 20,0 C 82 % 1012,6 hPa 0,0 l/m 0 min 0 min 0 W/m 0,0 km/h (0 Bft) 100,00 %
26.07.2018 04:08 21,3 C 20,0 C 20,0 C 82 % 1012,7 hPa 0,0 l/m 0 min 0 min 0 W/m 0,0 km/h (0 Bft) 97,83 %
26.07.2018 04:10 21,3 C 20,0 C 20,0 C 82 % 1012,6 hPa 0,0 l/m 0 min 0 min 0 W/m 0,0 km/h (0 Bft) 100,00 %
26.07.2018 04:12 21,3 C 20,0 C 20,0 C 82 % 1012,6 hPa 0,0 l/m 0 min 0 min 0 W/m 2,3 km/h (1 Bft) 100,00 %
26.07.2018 04:14 21,3 C 20,0 C 20,0 C 82 % 1012,7 hPa 0,0 l/m 0 min 0 min 0 W/m 0,0 km/h (0 Bft) 100,00 %
26.07.2018 04:16 21,3 C 20,0 C 20,0 C 82 % 1012,6 hPa 0,0 l/m 0 min 0 min 0 W/m 0,0 km/h (0 Bft) 100,00 %
26.07.2018 04:18 21,2 C 20,0 C 20,0 C 82 % 1012,6 hPa 0,0 l/m 0 min 0 min 0 W/m 2,3 km/h (1 Bft) 97,87 %
26.07.2018 04:20 21,2 C 20,0 C 20,0 C 83 % 1012,5 hPa 0,0 l/m 0 min 0 min 0 W/m 0,0 km/h (0 Bft) 100,00 %
26.07.2018 04:22 21,2 C 20,0 C 20,0 C 83 % 1012,6 hPa 0,0 l/m 0 min 0 min 0 W/m 0,0 km/h (0 Bft) 100,00 %
26.07.2018 04:24 21,2 C 20,0 C 20,0 C 83 % 1012,5 hPa 0,0 l/m 0 min 0 min 0 W/m 0,0 km/h (0 Bft) 100,00 %
26.07.2018 04:26 21,2 C 20,0 C 20,0 C 83 % 1012,6 hPa 0,0 l/m 0 min 0 min 0 W/m 0,0 km/h (0 Bft) 100,00 %
26.07.2018 04:28 21,2 C 20,0 C 20,0 C 83 % 1012,6 hPa 0,0 l/m 0 min 0 min 0 W/m 0,0 km/h (0 Bft) 100,00 %
26.07.2018 04:30 21,1 C 20,0 C 20,0 C 83 % 1012,5 hPa 0,0 l/m 0 min 0 min 0 W/m 0,0 km/h (0 Bft) 97,87 %
26.07.2018 04:32 21,1 C 20,0 C 20,0 C 83 % 1012,6 hPa 0,0 l/m 0 min 0 min 0 W/m 0,0 km/h (0 Bft) 100,00 %
26.07.2018 04:34 21,1 C 20,0 C 20,0 C 83 % 1012,6 hPa 0,0 l/m 0 min 0 min 0 W/m 0,0 km/h (0 Bft) 97,87 %
26.07.2018 04:36 21,1 C 20,0 C 20,0 C 83 % 1012,5 hPa 0,0 l/m 0 min 0 min 0 W/m 0,0 km/h (0 Bft) 95,74 %
26.07.2018 04:38 21,1 C 20,0 C 20,0 C 83 % 1012,5 hPa 0,0 l/m 0 min 0 min 0 W/m 0,0 km/h (0 Bft) 97,87 %
26.07.2018 04:40 21,1 C 20,0 C 20,0 C 83 % 1012,5 hPa 0,0 l/m 0 min 0 min 0 W/m 0,0 km/h (0 Bft) 100,00 %
26.07.2018 04:42 21,1 C 20,0 C 20,0 C 83 % 1012,5 hPa 0,0 l/m 0 min 0 min 0 W/m 0,0 km/h (0 Bft) 97,87 %
26.07.2018 04:44 21,0 C 20,0 C 20,0 C 84 % 1012,5 hPa 0,0 l/m 0 min 0 min 0 W/m 0,0 km/h (0 Bft) 97,83 %
26.07.2018 04:46 21,0 C 20,0 C 20,0 C 84 % 1012,5 hPa 0,0 l/m 0 min 0 min 0 W/m 0,0 km/h (0 Bft) 97,87 %
26.07.2018 04:48 21,0 C 20,0 C 20,0 C 84 % 1012,5 hPa 0,0 l/m 0 min 0 min 0 W/m 0,0 km/h (0 Bft) 100,00 %
26.07.2018 04:50 21,0 C 20,0 C 19,4 C 84 % 1012,5 hPa 0,0 l/m 0 min 0 min 0 W/m 0,0 km/h (0 Bft) 95,74 %
26.07.2018 04:52 21,0 C 20,0 C 19,4 C 84 % 1012,4 hPa 0,0 l/m 0 min 0 min 0 W/m 0,0 km/h (0 Bft) 97,87 %
26.07.2018 04:54 21,0 C 20,0 C 19,4 C 84 % 1012,5 hPa 0,0 l/m 0 min 0 min 0 W/m 0,0 km/h (0 Bft) 97,83 %
26.07.2018 04:56 20,9 C 20,0 C 19,4 C 84 % 1012,5 hPa 0,0 l/m 0 min 0 min 0 W/m 0,0 km/h (0 Bft) 97,87 %
26.07.2018 04:58 20,9 C 20,0 C 19,4 C 84 % 1012,5 hPa 0,0 l/m 0 min 0 min 0 W/m 0,0 km/h (0 Bft) 97,87 %
26.07.2018 05:00 20,9 C 20,0 C 19,4 C 84 % 1012,4 hPa 0,0 l/m 0 min 0 min 0 W/m 0,0 km/h (0 Bft) 97,87 %
26.07.2018 05:02 20,9 C 19,4 C 19,4 C 84 % 1012,5 hPa 0,0 l/m 0 min 0 min 0 W/m 0,0 km/h (0 Bft) 97,87 %
26.07.2018 05:04 20,9 C 19,4 C 20,0 C 84 % 1012,5 hPa 0,0 l/m 0 min 0 min 0 W/m 0,0 km/h (0 Bft) 97,87 %
26.07.2018 05:06 20,9 C 19,4 C 20,0 C 84 % 1012,5 hPa 0,0 l/m 0 min 0 min 0 W/m 0,0 km/h (0 Bft) 95,74 %
26.07.2018 05:08 20,9 C 19,4 C 20,0 C 84 % 1012,5 hPa 0,0 l/m 0 min 0 min 0 W/m 0,0 km/h (0 Bft) 97,83 %
26.07.2018 05:10 20,8 C 19,4 C 20,0 C 84 % 1012,5 hPa 0,0 l/m 0 min 0 min 0 W/m 0,0 km/h (0 Bft) 97,87 %
26.07.2018 05:12 20,8 C 19,4 C 20,0 C 85 % 1012,5 hPa 0,0 l/m 0 min 0 min 0 W/m 0,0 km/h (0 Bft) 97,87 %
26.07.2018 05:14 20,8 C 19,4 C 19,4 C 85 % 1012,5 hPa 0,0 l/m 0 min 0 min 0 W/m 0,0 km/h (0 Bft) 97,87 %
26.07.2018 05:16 20,8 C 19,4 C 19,4 C 85 % 1012,5 hPa 0,0 l/m 0 min 0 min 0 W/m 0,0 km/h (0 Bft) 95,74 %
26.07.2018 05:18 20,8 C 19,4 C 19,4 C 85 % 1012,5 hPa 0,0 l/m 0 min 0 min 0 W/m 0,0 km/h (0 Bft) 97,83 %
26.07.2018 05:20 20,8 C 19,4 C 19,4 C 85 % 1012,5 hPa 0,0 l/m 0 min 0 min 0 W/m 0,0 km/h (0 Bft) 95,74 %
26.07.2018 05:22 20,8 C 19,4 C 19,4 C 85 % 1012,5 hPa 0,0 l/m 0 min 0 min 0 W/m 0,0 km/h (0 Bft) 97,87 %
26.07.2018 05:24 20,8 C 19,4 C 19,4 C 85 % 1012,6 hPa 0,0 l/m 0 min 0 min 0 W/m 0,0 km/h (0 Bft) 97,87 %
26.07.2018 05:26 20,7 C 19,4 C 19,4 C 85 % 1012,5 hPa 0,0 l/m 0 min 0 min 0 W/m 0,0 km/h (0 Bft) 97,87 %
26.07.2018 05:28 20,7 C 18,9 C 19,4 C 85 % 1012,5 hPa 0,0 l/m 0 min 0 min 0 W/m 0,0 km/h (0 Bft) 97,87 %
26.07.2018 05:30 20,7 C 18,9 C 19,4 C 86 % 1012,5 hPa 0,0 l/m 0 min 0 min 0 W/m 0,0 km/h (0 Bft) 97,83 %
26.07.2018 05:32 20,7 C 18,9 C 18,9 C 86 % 1012,5 hPa 0,0 l/m 0 min 0 min 0 W/m 0,0 km/h (0 Bft) 97,87 %
26.07.2018 05:34 20,7 C 18,9 C 18,9 C 86 % 1012,5 hPa 0,0 l/m 0 min 0 min 0 W/m 0,0 km/h (0 Bft) 97,87 %
26.07.2018 05:35 20,7 C 18,9 C 18,9 C 86 % 1012,6 hPa 0,0 l/m 0 min 0 min 0 W/m 0,0 km/h (0 Bft) 100,00 %
26.07.2018 05:40 20,6 C 18,9 C 18,9 C 86 % 1012,5 hPa 0,0 l/m 0 min 0 min 0 W/m 0,0 km/h (0 Bft) 97,67 %
26.07.2018 05:42 20,6 C 18,9 C 18,9 C 86 % 1012,6 hPa 0,0 l/m 0 min 0 min 0 W/m 0,0 km/h (0 Bft) 100,00 %
26.07.2018 05:44 20,6 C 18,9 C 18,9 C 86 % 1012,6 hPa 0,0 l/m 0 min 0 min 0 W/m 0,0 km/h (0 Bft) 97,87 %
26.07.2018 05:46 20,5 C 18,9 C 18,9 C 86 % 1012,6 hPa 0,0 l/m 0 min 0 min 0 W/m 0,0 km/h (0 Bft) 97,87 %
26.07.2018 05:48 20,5 C 18,9 C 18,9 C 86 % 1012,6 hPa 0,0 l/m 0 min 0 min 0 W/m 0,0 km/h (0 Bft) 97,87 %
26.07.2018 05:50 20,5 C 18,9 C 18,9 C 86 % 1012,6 hPa 0,0 l/m 0 min 0 min 3 W/m 0,0 km/h (0 Bft) 98,11 %
26.07.2018 05:52 20,4 C 18,9 C 18,9 C 86 % 1012,6 hPa 0,0 l/m 0 min 0 min 5 W/m 0,0 km/h (0 Bft) 95,92 %
26.07.2018 05:54 20,4 C 19,4 C 18,9 C 86 % 1012,6 hPa 0,0 l/m 0 min 0 min 5 W/m 0,0 km/h (0 Bft) 97,87 %
26.07.2018 05:56 20,4 C 18,9 C 18,9 C 86 % 1012,5 hPa 0,0 l/m 0 min 0 min 5 W/m 0,0 km/h (0 Bft) 95,74 %
26.07.2018 05:58 20,4 C 18,9 C 18,9 C 86 % 1012,5 hPa 0,0 l/m 0 min 0 min 7 W/m 0,0 km/h (0 Bft) 97,87 %
26.07.2018 06:00 20,3 C 18,9 C 18,9 C 86 % 1012,6 hPa 0,0 l/m 0 min 0 min 7 W/m 0,0 km/h (0 Bft) 97,87 %
26.07.2018 06:02 20,3 C 18,9 C 18,9 C 86 % 1012,6 hPa 0,0 l/m 0 min 0 min 9 W/m 0,0 km/h (0 Bft) 95,65 %
26.07.2018 06:04 20,3 C 18,9 C 18,9 C 86 % 1012,6 hPa 0,0 l/m 0 min 0 min 10 W/m 0,0 km/h (0 Bft) 97,87 %
26.07.2018 06:08 20,3 C 18,9 C 18,9 C 87 % 1012,6 hPa 0,0 l/m 0 min 0 min 12 W/m 0,0 km/h (0 Bft) 96,88 %
26.07.2018 06:10 20,3 C 18,9 C 18,9 C 87 % 1012,6 hPa 0,0 l/m 0 min 0 min 12 W/m 0,0 km/h (0 Bft) 97,87 %
26.07.2018 06:12 20,2 C 18,9 C 18,9 C 87 % 1012,5 hPa 0,0 l/m 0 min 0 min 14 W/m 0,0 km/h (0 Bft) 97,87 %
26.07.2018 06:14 20,2 C 18,9 C 18,9 C 87 % 1012,6 hPa 0,0 l/m 0 min 0 min 16 W/m 0,0 km/h (0 Bft) 97,83 %
26.07.2018 06:16 20,2 C 18,9 C 18,9 C 87 % 1012,6 hPa 0,0 l/m 0 min 0 min 17 W/m 0,0 km/h (0 Bft) 97,87 %
26.07.2018 06:18 20,2 C 18,9 C 18,9 C 87 % 1012,6 hPa 0,0 l/m 0 min 0 min 18 W/m 0,0 km/h (0 Bft) 97,87 %
26.07.2018 06:20 20,2 C 18,9 C 18,9 C 87 % 1012,7 hPa 0,0 l/m 0 min 0 min 19 W/m 0,0 km/h (0 Bft) 93,62 %
26.07.2018 06:22 20,1 C 18,9 C 18,9 C 87 % 1012,7 hPa 0,0 l/m 0 min 0 min 21 W/m 0,0 km/h (0 Bft) 97,92 %
26.07.2018 06:24 20,1 C 18,9 C 18,9 C 87 % 1012,7 hPa 0,0 l/m 0 min 0 min 23 W/m 0,0 km/h (0 Bft) 93,62 %
26.07.2018 06:26 20,1 C 18,9 C 18,9 C 87 % 1012,6 hPa 0,0 l/m 0 min 0 min 24 W/m 0,0 km/h (0 Bft) 97,83 %
26.07.2018 06:28 20,1 C 18,9 C 18,9 C 87 % 1012,5 hPa 0,0 l/m 0 min 0 min 25 W/m 0,0 km/h (0 Bft) 97,87 %
26.07.2018 06:30 20,1 C 18,9 C 18,9 C 87 % 1012,6 hPa 0,0 l/m 0 min 0 min 26 W/m 0,0 km/h (0 Bft) 97,87 %
26.07.2018 06:32 20,1 C 18,9 C 18,9 C 87 % 1012,6 hPa 0,0 l/m 0 min 0 min 28 W/m 0,0 km/h (0 Bft) 97,30 %
26.07.2018 06:34 20,0 C 18,9 C 18,9 C 87 % 1012,5 hPa 0,0 l/m 0 min 0 min 29 W/m 0,0 km/h (0 Bft) 100,00 %
26.07.2018 06:36 20,0 C 19,4 C 18,9 C 87 % 1012,6 hPa 0,0 l/m 0 min 0 min 31 W/m 0,0 km/h (0 Bft) 100,00 %
26.07.2018 06:38 20,0 C 19,4 C 18,9 C 87 % 1012,6 hPa 0,0 l/m 0 min 0 min 32 W/m 0,0 km/h (0 Bft) 100,00 %
26.07.2018 06:40 20,0 C 19,4 C 18,9 C 87 % 1012,6 hPa 0,0 l/m 0 min 0 min 33 W/m 0,0 km/h (0 Bft) 100,00 %
26.07.2018 06:42 20,0 C 19,4 C 18,9 C 87 % 1012,5 hPa 0,0 l/m 0 min 0 min 35 W/m 0,0 km/h (0 Bft) 95,74 %
26.07.2018 06:44 19,9 C 19,4 C 18,9 C 87 % 1012,6 hPa 0,0 l/m 0 min 0 min 36 W/m 0,0 km/h (0 Bft) 97,87 %
26.07.2018 06:46 19,9 C 19,4 C 18,9 C 87 % 1012,6 hPa 0,0 l/m 0 min 0 min 37 W/m 0,0 km/h (0 Bft) 97,87 %
26.07.2018 06:48 19,9 C 19,4 C 18,9 C 88 % 1012,6 hPa 0,0 l/m 0 min 0 min 39 W/m 0,0 km/h (0 Bft) 97,87 %
26.07.2018 06:50 19,9 C 19,4 C 18,9 C 88 % 1012,6 hPa 0,0 l/m 0 min 0 min 39 W/m 0,0 km/h (0 Bft) 95,74 %
26.07.2018 06:52 19,9 C 19,4 C 18,9 C 88 % 1012,5 hPa 0,0 l/m 0 min 0 min 40 W/m 0,0 km/h (0 Bft) 97,83 %
26.07.2018 06:54 19,9 C 19,4 C 18,9 C 88 % 1012,6 hPa 0,0 l/m 0 min 0 min 40 W/m 0,0 km/h (0 Bft) 97,87 %
26.07.2018 06:56 19,9 C 19,4 C 18,9 C 88 % 1012,6 hPa 0,0 l/m 0 min 0 min 42 W/m 0,0 km/h (0 Bft) 97,87 %
26.07.2018 06:58 19,9 C 20,0 C 18,9 C 88 % 1012,5 hPa 0,0 l/m 0 min 0 min 43 W/m 0,0 km/h (0 Bft) 97,87 %
26.07.2018 07:00 19,9 C 20,0 C 18,9 C 88 % 1012,6 hPa 0,0 l/m 0 min 0 min 44 W/m 0,0 km/h (0 Bft) 97,87 %
26.07.2018 07:02 19,9 C 20,0 C 18,9 C 89 % 1012,7 hPa 0,0 l/m 0 min 0 min 45 W/m 0,0 km/h (0 Bft) 97,87 %
26.07.2018 07:04 20,0 C 20,0 C 18,9 C 89 % 1012,7 hPa 0,0 l/m 0 min 0 min 46 W/m 0,0 km/h (0 Bft) 97,83 %
26.07.2018 07:06 20,0 C 20,0 C 19,4 C 89 % 1012,8 hPa 0,0 l/m 0 min 0 min 47 W/m 0,0 km/h (0 Bft) 96,23 %
26.07.2018 07:08 20,0 C 20,0 C 19,4 C 89 % 1012,8 hPa 0,0 l/m 0 min 0 min 48 W/m 0,0 km/h (0 Bft) 97,56 %
26.07.2018 07:10 20,0 C 20,0 C 19,4 C 89 % 1012,8 hPa 0,0 l/m 0 min 0 min 51 W/m 0,0 km/h (0 Bft) 97,87 %
26.07.2018 07:12 20,0 C 20,0 C 19,4 C 89 % 1012,8 hPa 0,0 l/m 0 min 0 min 53 W/m 0,0 km/h (0 Bft) 97,87 %
26.07.2018 07:14 20,0 C 20,0 C 19,4 C 89 % 1012,7 hPa 0,0 l/m 0 min 0 min 54 W/m 0,0 km/h (0 Bft) 97,87 %
26.07.2018 07:16 20,0 C 20,0 C 19,4 C 90 % 1012,7 hPa 0,0 l/m 0 min 0 min 54 W/m 0,0 km/h (0 Bft) 98,08 %
26.07.2018 07:18 20,1 C 20,0 C 19,4 C 90 % 1012,8 hPa 0,0 l/m 0 min 0 min 56 W/m 0,0 km/h (0 Bft) 95,12 %
26.07.2018 07:20 20,1 C 20,0 C 19,4 C 90 % 1012,7 hPa 0,0 l/m 0 min 0 min 58 W/m 0,0 km/h (0 Bft) 96,23 %
26.07.2018 07:22 20,1 C 20,0 C 19,4 C 90 % 1012,7 hPa 0,0 l/m 0 min 0 min 58 W/m 0,0 km/h (0 Bft) 95,83 %
26.07.2018 07:24 20,1 C 20,6 C 19,4 C 90 % 1012,7 hPa 0,0 l/m 0 min 0 min 59 W/m 0,0 km/h (0 Bft) 97,87 %
26.07.2018 07:26 20,1 C 20,6 C 19,4 C 90 % 1012,7 hPa 0,0 l/m 0 min 0 min 62 W/m 0,0 km/h (0 Bft) 95,65 %
26.07.2018 07:28 20,1 C 20,6 C 20,0 C 90 % 1012,7 hPa 0,0 l/m 0 min 0 min 63 W/m 0,0 km/h (0 Bft) 97,87 %
26.07.2018 07:30 20,1 C 20,6 C 20,0 C 91 % 1012,8 hPa 0,0 l/m 0 min 0 min 66 W/m 0,0 km/h (0 Bft) 93,62 %
26.07.2018 07:32 20,2 C 20,6 C 20,0 C 91 % 1012,8 hPa 0,0 l/m 0 min 0 min 69 W/m 0,0 km/h (0 Bft) 95,92 %
26.07.2018 07:34 20,2 C 21,1 C 20,0 C 91 % 1012,8 hPa 0,0 l/m 0 min 0 min 72 W/m 2,3 km/h (1 Bft) 95,74 %
26.07.2018 07:36 20,2 C 21,1 C 20,0 C 91 % 1012,8 hPa 0,0 l/m 0 min 0 min 72 W/m 2,3 km/h (1 Bft) 94,74 %
26.07.2018 07:38 20,2 C 21,1 C 20,0 C 91 % 1012,8 hPa 0,0 l/m 0 min 0 min 72 W/m 0,0 km/h (0 Bft) 95,65 %
26.07.2018 07:40 20,2 C 21,1 C 20,0 C 91 % 1012,8 hPa 0,0 l/m 0 min 0 min 72 W/m 0,0 km/h (0 Bft) 95,74 %
26.07.2018 07:42 20,3 C 21,1 C 20,6 C 91 % 1012,8 hPa 0,0 l/m 0 min 0 min 74 W/m 2,3 km/h (1 Bft) 95,74 %
26.07.2018 07:44 20,3 C 21,7 C 20,6 C 91 % 1012,8 hPa 0,0 l/m 0 min 0 min 75 W/m 0,0 km/h (0 Bft) 97,87 %
26.07.2018 07:46 20,3 C 21,7 C 20,6 C 91 % 1012,9 hPa 0,0 l/m 0 min 0 min 78 W/m 0,0 km/h (0 Bft) 97,87 %
26.07.2018 07:48 20,4 C 21,7 C 20,6 C 92 % 1012,9 hPa 0,0 l/m 0 min 0 min 82 W/m 0,0 km/h (0 Bft) 97,87 %
26.07.2018 07:50 20,4 C 21,7 C 20,6 C 92 % 1012,8 hPa 0,0 l/m 0 min 0 min 84 W/m 0,0 km/h (0 Bft) 95,65 %
26.07.2018 07:52 20,5 C 21,7 C 20,6 C 92 % 1012,9 hPa 0,0 l/m 0 min 0 min 86 W/m 0,0 km/h (0 Bft) 95,74 %
26.07.2018 07:54 20,5 C 22,2 C 20,6 C 92 % 1012,8 hPa 0,0 l/m 0 min 0 min 88 W/m 0,0 km/h (0 Bft) 97,87 %
26.07.2018 07:56 20,6 C 22,2 C 20,6 C 92 % 1012,6 hPa 0,0 l/m 0 min 0 min 91 W/m 0,0 km/h (0 Bft) 97,87 %
26.07.2018 07:58 20,6 C 22,2 C 20,6 C 92 % 1012,6 hPa 0,0 l/m 0 min 0 min 96 W/m 0,0 km/h (0 Bft) 95,74 %
26.07.2018 08:00 20,7 C 22,2 C 20,6 C 92 % 1012,6 hPa 0,0 l/m 0 min 0 min 102 W/m 0,0 km/h (0 Bft) 95,74 %
26.07.2018 08:02 20,7 C 22,8 C 20,6 C 92 % 1012,7 hPa 0,0 l/m 0 min 0 min 111 W/m 2,3 km/h (1 Bft) 93,48 %
26.07.2018 08:04 20,7 C 22,8 C 21,1 C 92 % 1012,7 hPa 0,0 l/m 0 min 0 min 113 W/m 0,0 km/h (0 Bft) 97,87 %
26.07.2018 08:06 20,8 C 22,8 C 21,1 C 92 % 1012,8 hPa 0,0 l/m 0 min 0 min 114 W/m 0,0 km/h (0 Bft) 92,16 %
26.07.2018 08:08 20,8 C 23,3 C 21,1 C 92 % 1012,8 hPa 0,0 l/m 0 min 0 min 116 W/m 2,3 km/h (1 Bft) 97,87 %
26.07.2018 08:10 20,9 C 23,3 C 21,1 C 92 % 1012,8 hPa 0,0 l/m 0 min 0 min 116 W/m 2,3 km/h (1 Bft) 97,87 %
26.07.2018 08:12 20,9 C 23,3 C 21,1 C 92 % 1012,8 hPa 0,0 l/m 0 min 0 min 120 W/m 2,3 km/h (1 Bft) 97,87 %
26.07.2018 08:14 21,0 C 23,9 C 21,1 C 92 % 1012,8 hPa 0,0 l/m 0 min 0 min 124 W/m 2,3 km/h (1 Bft) 95,65 %
26.07.2018 08:16 21,0 C 23,9 C 21,1 C 92 % 1012,8 hPa 0,0 l/m 0 min 0 min 124 W/m 0,0 km/h (0 Bft) 95,74 %
26.07.2018 08:18 21,1 C 23,9 C 21,1 C 92 % 1012,9 hPa 0,0 l/m 0 min 0 min 122 W/m 4,5 km/h (1 Bft) 97,87 %
26.07.2018 08:20 21,1 C 23,9 C 21,1 C 92 % 1012,9 hPa 0,0 l/m 0 min 0 min 118 W/m 2,3 km/h (1 Bft) 97,87 %
26.07.2018 08:22 21,2 C 23,9 C 21,1 C 92 % 1012,8 hPa 0,0 l/m 0 min 0 min 112 W/m 4,5 km/h (1 Bft) 100,00 %
26.07.2018 08:24 21,2 C 23,9 C 21,1 C 91 % 1012,8 hPa 0,0 l/m 0 min 0 min 106 W/m 0,0 km/h (0 Bft) 100,00 %
26.07.2018 08:26 21,3 C 23,9 C 21,1 C 91 % 1012,8 hPa 0,0 l/m 0 min 0 min 98 W/m 2,3 km/h (1 Bft) 100,00 %
26.07.2018 08:28 21,4 C 23,9 C 21,1 C 91 % 1012,8 hPa 0,0 l/m 0 min 0 min 95 W/m 4,5 km/h (1 Bft) 100,00 %
26.07.2018 08:30 21,4 C 23,9 C 21,1 C 91 % 1012,8 hPa 0,0 l/m 0 min 0 min 98 W/m 6,8 km/h (2 Bft) 97,87 %
26.07.2018 08:32 21,5 C 23,9 C 21,7 C 90 % 1012,8 hPa 0,0 l/m 0 min 0 min 104 W/m 4,5 km/h (1 Bft) 97,87 %
26.07.2018 08:34 21,6 C 23,9 C 21,7 C 90 % 1012,8 hPa 0,0 l/m 0 min 0 min 108 W/m 4,5 km/h (1 Bft) 97,87 %
26.07.2018 08:36 21,6 C 23,9 C 21,7 C 89 % 1012,8 hPa 0,0 l/m 0 min 0 min 109 W/m 4,5 km/h (1 Bft) 95,65 %
26.07.2018 08:38 21,7 C 23,9 C 21,7 C 89 % 1012,7 hPa 0,0 l/m 0 min 0 min 112 W/m 6,8 km/h (2 Bft) 97,87 %
26.07.2018 08:40 21,7 C 23,9 C 21,7 C 88 % 1012,7 hPa 0,0 l/m 0 min 0 min 126 W/m 0,0 km/h (0 Bft) 95,74 %
26.07.2018 08:42 21,8 C 23,9 C 21,7 C 88 % 1012,7 hPa 0,0 l/m 0 min 0 min 134 W/m 2,3 km/h (1 Bft) 95,74 %
26.07.2018 08:44 21,9 C 23,9 C 21,7 C 87 % 1012,7 hPa 0,0 l/m 0 min 0 min 144 W/m 2,3 km/h (1 Bft) 95,74 %
26.07.2018 08:46 21,9 C 24,4 C 21,7 C 87 % 1012,7 hPa 0,0 l/m 0 min 0 min 146 W/m 0,0 km/h (0 Bft) 97,87 %
26.07.2018 08:48 22,0 C 24,4 C 21,7 C 88 % 1012,7 hPa 0,0 l/m 0 min 0 min 152 W/m 4,5 km/h (1 Bft) 97,83 %
26.07.2018 08:50 22,1 C 24,4 C 21,7 C 87 % 1012,7 hPa 0,0 l/m 0 min 0 min 164 W/m 0,0 km/h (0 Bft) 97,87 %
26.07.2018 08:52 22,2 C 24,4 C 21,7 C 87 % 1012,7 hPa 0,0 l/m 0 min 0 min 177 W/m 4,5 km/h (1 Bft) 97,87 %
26.07.2018 08:54 22,2 C 24,4 C 21,7 C 86 % 1012,7 hPa 0,0 l/m 0 min 0 min 181 W/m 4,5 km/h (1 Bft) 97,87 %
26.07.2018 08:56 22,3 C 24,4 C 21,7 C 86 % 1012,7 hPa 0,0 l/m 0 min 0 min 187 W/m 6,8 km/h (2 Bft) 97,87 %
26.07.2018 08:58 22,4 C 25,0 C 22,2 C 85 % 1012,8 hPa 0,0 l/m 0 min 0 min 202 W/m 4,5 km/h (1 Bft) 97,87 %
26.07.2018 09:00 22,5 C 25,0 C 22,2 C 85 % 1012,8 hPa 0,0 l/m 0 min 0 min 218 W/m 0,0 km/h (0 Bft) 97,83 %
26.07.2018 09:02 22,6 C 25,6 C 22,2 C 85 % 1012,7 hPa 0,0 l/m 2 min 0 min 237 W/m 0,0 km/h (0 Bft) 95,74 %
26.07.2018 09:04 22,7 C 25,6 C 22,2 C 85 % 1012,8 hPa 0,0 l/m 2 min 0 min 247 W/m 4,5 km/h (1 Bft) 95,74 %
26.07.2018 09:06 22,7 C 25,6 C 22,2 C 85 % 1012,8 hPa 0,0 l/m 2 min 0 min 242 W/m 4,5 km/h (1 Bft) 95,35 %
26.07.2018 09:08 22,8 C 26,1 C 22,2 C 85 % 1012,8 hPa 0,0 l/m 2 min 0 min 257 W/m 0,0 km/h (0 Bft) 97,87 %
26.07.2018 09:10 22,8 C 26,1 C 22,8 C 85 % 1012,8 hPa 0,0 l/m 2 min 0 min 276 W/m 4,5 km/h (1 Bft) 97,87 %
26.07.2018 09:12 22,9 C 26,1 C 22,8 C 85 % 1012,8 hPa 0,0 l/m 2 min 0 min 296 W/m 4,5 km/h (1 Bft) 97,83 %
26.07.2018 09:14 23,0 C 26,1 C 22,8 C 84 % 1012,8 hPa 0,0 l/m 2 min 0 min 308 W/m 6,8 km/h (2 Bft) 97,87 %
26.07.2018 09:16 23,1 C 26,1 C 22,8 C 84 % 1012,8 hPa 0,0 l/m 2 min 0 min 302 W/m 4,5 km/h (1 Bft) 100,00 %
26.07.2018 09:18 23,2 C 26,1 C 23,3 C 83 % 1012,8 hPa 0,0 l/m 2 min 0 min 340 W/m 6,8 km/h (2 Bft) 100,00 %
26.07.2018 09:20 23,3 C 26,1 C 23,3 C 83 % 1012,8 hPa 0,0 l/m 2 min 0 min 334 W/m 6,8 km/h (2 Bft) 100,00 %
26.07.2018 09:22 23,4 C 26,7 C 23,3 C 83 % 1012,8 hPa 0,0 l/m 2 min 0 min 352 W/m 6,8 km/h (2 Bft) 97,30 %
26.07.2018 09:24 23,6 C 26,7 C 23,3 C 82 % 1012,8 hPa 0,0 l/m 2 min 0 min 332 W/m 4,5 km/h (1 Bft) 100,00 %
26.07.2018 09:26 23,7 C 26,7 C 23,3 C 82 % 1012,8 hPa 0,0 l/m 2 min 0 min 309 W/m 6,8 km/h (2 Bft) 100,00 %
26.07.2018 09:28 23,8 C 26,7 C 23,3 C 81 % 1012,9 hPa 0,0 l/m 2 min 0 min 306 W/m 4,5 km/h (1 Bft) 100,00 %
26.07.2018 09:30 23,9 C 27,2 C 23,3 C 81 % 1012,9 hPa 0,0 l/m 2 min 0 min 317 W/m 6,8 km/h (2 Bft) 100,00 %
26.07.2018 09:32 23,9 C 26,7 C 23,3 C 80 % 1012,9 hPa 0,0 l/m 2 min 0 min 349 W/m 6,8 km/h (2 Bft) 100,00 %
26.07.2018 09:34 24,1 C 27,2 C 23,9 C 79 % 1012,9 hPa 0,0 l/m 2 min 0 min 398 W/m 4,5 km/h (1 Bft) 100,00 %
26.07.2018 09:36 24,2 C 27,2 C 23,9 C 78 % 1012,9 hPa 0,0 l/m 2 min 0 min 567 W/m 6,8 km/h (2 Bft) 100,00 %
26.07.2018 09:38 24,4 C 27,8 C 23,9 C 78 % 1012,8 hPa 0,0 l/m 2 min 0 min 506 W/m 2,3 km/h (1 Bft) 100,00 %
26.07.2018 09:40 24,5 C 27,8 C 23,9 C 78 % 1012,7 hPa 0,0 l/m 2 min 0 min 378 W/m 4,5 km/h (1 Bft) 97,87 %
26.07.2018 09:42 24,6 C 27,8 C 23,9 C 77 % 1012,7 hPa 0,0 l/m 2 min 0 min 354 W/m 6,8 km/h (2 Bft) 97,87 %
26.07.2018 09:44 24,7 C 28,3 C 24,4 C 78 % 1012,7 hPa 0,0 l/m 2 min 0 min 542 W/m 4,5 km/h (1 Bft) 100,00 %
26.07.2018 09:46 24,8 C 28,9 C 24,4 C 77 % 1012,7 hPa 0,0 l/m 2 min 0 min 557 W/m 4,5 km/h (1 Bft) 100,00 %
26.07.2018 09:48 24,9 C 28,9 C 24,4 C 77 % 1012,7 hPa 0,0 l/m 2 min 0 min 491 W/m 4,5 km/h (1 Bft) 100,00 %
26.07.2018 09:50 25,1 C 28,9 C 24,4 C 77 % 1012,7 hPa 0,0 l/m 2 min 0 min 389 W/m 2,3 km/h (1 Bft) 100,00 %
26.07.2018 09:52 25,1 C 28,9 C 24,4 C 77 % 1012,7 hPa 0,0 l/m 2 min 0 min 368 W/m 2,3 km/h (1 Bft) 97,96 %
26.07.2018 09:54 25,2 C 29,4 C 24,4 C 77 % 1012,7 hPa 0,0 l/m 2 min 0 min 512 W/m 2,3 km/h (1 Bft) 97,87 %
26.07.2018 09:56 25,3 C 30,6 C 25,0 C 77 % 1012,7 hPa 0,0 l/m 2 min 0 min 575 W/m 4,5 km/h (1 Bft) 100,00 %
26.07.2018 09:58 25,3 C 30,6 C 25,0 C 77 % 1012,7 hPa 0,0 l/m 2 min 0 min 542 W/m 4,5 km/h (1 Bft) 100,00 %
26.07.2018 10:00 25,4 C 30,0 C 25,0 C 74 % 1012,8 hPa 0,0 l/m 2 min 0 min 584 W/m 9,0 km/h (2 Bft) 97,87 %
26.07.2018 10:02 25,6 C 30,0 C 25,6 C 74 % 1012,7 hPa 0,0 l/m 2 min 0 min 575 W/m 6,8 km/h (2 Bft) 97,87 %
26.07.2018 10:04 25,7 C 29,4 C 25,0 C 72 % 1012,8 hPa 0,0 l/m 2 min 0 min 555 W/m 6,8 km/h (2 Bft) 97,87 %
26.07.2018 10:06 25,9 C 29,4 C 25,0 C 72 % 1012,8 hPa 0,0 l/m 2 min 0 min 543 W/m 2,3 km/h (1 Bft) 97,62 %
26.07.2018 10:08 26,0 C 29,4 C 25,0 C 71 % 1012,8 hPa 0,0 l/m 2 min 0 min 539 W/m 6,8 km/h (2 Bft) 97,87 %
26.07.2018 10:10 26,2 C 29,4 C 25,0 C 71 % 1012,8 hPa 0,0 l/m 2 min 0 min 532 W/m 4,5 km/h (1 Bft) 97,87 %
26.07.2018 10:12 26,3 C 29,4 C 25,0 C 70 % 1012,8 hPa 0,0 l/m 2 min 0 min 533 W/m 4,5 km/h (1 Bft) 97,83 %
26.07.2018 10:14 26,4 C 29,4 C 25,0 C 70 % 1012,8 hPa 0,0 l/m 2 min 0 min 527 W/m 6,8 km/h (2 Bft) 97,87 %
26.07.2018 10:16 26,5 C 28,9 C 25,0 C 68 % 1012,8 hPa 0,0 l/m 2 min 0 min 522 W/m 9,0 km/h (2 Bft) 97,87 %
26.07.2018 10:18 26,7 C 28,9 C 25,0 C 68 % 1012,8 hPa 0,0 l/m 2 min 0 min 531 W/m 4,5 km/h (1 Bft) 97,87 %
26.07.2018 10:20 26,8 C 29,4 C 25,0 C 69 % 1012,8 hPa 0,0 l/m 2 min 0 min 534 W/m 6,8 km/h (2 Bft) 96,55 %
26.07.2018 10:22 26,9 C 29,4 C 25,6 C 69 % 1012,8 hPa 0,0 l/m 2 min 0 min 537 W/m 2,3 km/h (1 Bft) 94,44 %
26.07.2018 10:24 27,0 C 29,4 C 25,6 C 69 % 1012,8 hPa 0,0 l/m 2 min 0 min 538 W/m 0,0 km/h (0 Bft) 95,74 %
26.07.2018 10:26 27,1 C 30,0 C 25,6 C 69 % 1012,8 hPa 0,0 l/m 2 min 0 min 513 W/m 6,8 km/h (2 Bft) 95,74 %
26.07.2018 10:28 27,2 C 29,4 C 25,0 C 68 % 1012,8 hPa 0,0 l/m 2 min 0 min 433 W/m 4,5 km/h (1 Bft) 97,87 %
26.07.2018 10:30 27,3 C 30,0 C 25,6 C 67 % 1012,8 hPa 0,0 l/m 2 min 0 min 377 W/m 9,0 km/h (2 Bft) 97,87 %
26.07.2018 10:32 27,4 C 30,0 C 25,6 C 66 % 1012,8 hPa 0,0 l/m 2 min 0 min 515 W/m 4,5 km/h (1 Bft) 95,74 %
26.07.2018 10:34 27,4 C 30,6 C 25,6 C 67 % 1012,8 hPa 0,0 l/m 2 min 0 min 513 W/m 4,5 km/h (1 Bft) 95,65 %
26.07.2018 10:36 27,5 C 31,7 C 25,6 C 67 % 1012,7 hPa 0,0 l/m 2 min 0 min 553 W/m 4,5 km/h (1 Bft) 92,45 %
26.07.2018 10:38 27,6 C 32,8 C 25,6 C 66 % 1012,7 hPa 0,0 l/m 2 min 0 min 571 W/m 4,5 km/h (1 Bft) 97,87 %
26.07.2018 10:40 27,7 C 33,9 C 25,6 C 64 % 1012,7 hPa 0,0 l/m 2 min 0 min 572 W/m 6,8 km/h (2 Bft) 97,87 %
26.07.2018 10:42 27,8 C 35,6 C 25,6 C 64 % 1012,7 hPa 0,0 l/m 2 min 0 min 578 W/m 4,5 km/h (1 Bft) 95,74 %
26.07.2018 10:44 27,9 C 37,2 C 25,6 C 65 % 1012,7 hPa 0,0 l/m 2 min 0 min 583 W/m 2,3 km/h (1 Bft) 95,65 %
26.07.2018 10:46 28,0 C 37,2 C 25,6 C 66 % 1012,7 hPa 0,0 l/m 2 min 0 min 590 W/m 6,8 km/h (2 Bft) 95,74 %
26.07.2018 10:48 28,1 C 37,2 C 26,1 C 64 % 1012,8 hPa 0,0 l/m 2 min 0 min 595 W/m 4,5 km/h (1 Bft) 93,62 %
26.07.2018 10:50 28,2 C 36,7 C 26,1 C 62 % 1012,8 hPa 0,0 l/m 2 min 0 min 598 W/m 4,5 km/h (1 Bft) 97,87 %
26.07.2018 10:52 28,3 C 37,2 C 26,1 C 63 % 1012,7 hPa 0,0 l/m 2 min 0 min 604 W/m 6,8 km/h (2 Bft) 93,62 %
26.07.2018 10:54 28,5 C 37,2 C 26,1 C 63 % 1012,7 hPa 0,0 l/m 2 min 0 min 614 W/m 4,5 km/h (1 Bft) 95,74 %
26.07.2018 10:56 28,7 C 37,8 C 26,1 C 62 % 1012,7 hPa 0,0 l/m 2 min 0 min 610 W/m 4,5 km/h (1 Bft) 95,65 %
26.07.2018 10:58 28,8 C 38,3 C 26,1 C 63 % 1012,7 hPa 0,0 l/m 2 min 0 min 615 W/m 4,5 km/h (1 Bft) 97,87 %
26.07.2018 11:00 29,0 C 37,8 C 26,1 C 60 % 1012,7 hPa 0,0 l/m 2 min 0 min 620 W/m 6,8 km/h (2 Bft) 97,87 %
26.07.2018 11:02 29,2 C 38,9 C 26,1 C 61 % 1012,7 hPa 0,0 l/m 2 min 0 min 623 W/m 2,3 km/h (1 Bft) 95,74 %
26.07.2018 11:04 29,4 C 39,4 C 26,7 C 61 % 1012,7 hPa 0,0 l/m 2 min 0 min 626 W/m 2,3 km/h (1 Bft) 95,74 %
26.07.2018 11:06 29,6 C 39,4 C 26,7 C 61 % 1012,7 hPa 0,0 l/m 2 min 0 min 639 W/m 4,5 km/h (1 Bft) 93,75 %
26.07.2018 11:08 29,8 C 38,9 C 26,7 C 60 % 1012,7 hPa 0,0 l/m 2 min 0 min 643 W/m 9,0 km/h (2 Bft) 95,65 %
26.07.2018 11:10 29,9 C 38,9 C 26,7 C 59 % 1012,7 hPa 0,0 l/m 2 min 0 min 640 W/m 6,8 km/h (2 Bft) 95,74 %
26.07.2018 11:12 30,2 C 39,4 C 26,7 C 60 % 1012,7 hPa 0,0 l/m 2 min 0 min 620 W/m 4,5 km/h (1 Bft) 95,74 %
26.07.2018 11:14 30,3 C 39,4 C 26,7 C 60 % 1012,7 hPa 0,0 l/m 2 min 0 min 587 W/m 4,5 km/h (1 Bft) 95,74 %
26.07.2018 11:16 30,5 C 38,3 C 26,7 C 55 % 1012,7 hPa 0,0 l/m 2 min 0 min 536 W/m 9,0 km/h (2 Bft) 93,62 %
26.07.2018 11:18 30,7 C 38,3 C 26,7 C 55 % 1012,7 hPa 0,0 l/m 2 min 0 min 580 W/m 11,3 km/h (2 Bft) 93,62 %
26.07.2018 11:20 30,9 C 38,3 C 27,2 C 54 % 1012,6 hPa 0,0 l/m 2 min 0 min 680 W/m 9,0 km/h (2 Bft) 93,48 %
26.07.2018 11:22 31,2 C 37,8 C 27,8 C 52 % 1012,6 hPa 0,0 l/m 2 min 0 min 657 W/m 6,8 km/h (2 Bft) 95,74 %
26.07.2018 11:24 31,3 C 39,4 C 27,8 C 53 % 1012,6 hPa 0,0 l/m 2 min 0 min 673 W/m 2,3 km/h (1 Bft) 93,62 %
26.07.2018 11:26 31,6 C 39,4 C 27,8 C 55 % 1012,6 hPa 0,0 l/m 2 min 0 min 648 W/m 6,8 km/h (2 Bft) 95,74 %
26.07.2018 11:28 31,7 C 40,0 C 27,8 C 54 % 1012,6 hPa 0,0 l/m 2 min 0 min 614 W/m 2,3 km/h (1 Bft) 97,87 %
26.07.2018 11:30 31,9 C 40,6 C 27,8 C 53 % 1012,6 hPa 0,0 l/m 2 min 0 min 666 W/m 9,0 km/h (2 Bft) 97,87 %
26.07.2018 11:32 32,0 C 41,1 C 27,8 C 53 % 1012,6 hPa 0,0 l/m 2 min 0 min 659 W/m 2,3 km/h (1 Bft) 97,83 %
26.07.2018 11:34 32,2 C 38,9 C 27,8 C 50 % 1012,5 hPa 0,0 l/m 2 min 0 min 678 W/m 6,8 km/h (2 Bft) 97,87 %
26.07.2018 11:36 32,4 C 40,0 C 27,8 C 51 % 1012,5 hPa 0,0 l/m 2 min 0 min 683 W/m 6,8 km/h (2 Bft) 95,74 %
26.07.2018 11:38 32,6 C 40,6 C 27,8 C 53 % 1012,5 hPa 0,0 l/m 2 min 0 min 665 W/m 4,5 km/h (1 Bft) 97,87 %
26.07.2018 11:40 32,7 C 40,6 C 27,8 C 51 % 1012,5 hPa 0,0 l/m 2 min 0 min 633 W/m 6,8 km/h (2 Bft) 97,87 %
26.07.2018 11:42 32,8 C 40,6 C 27,8 C 51 % 1012,5 hPa 0,0 l/m 2 min 0 min 585 W/m 9,0 km/h (2 Bft) 97,87 %
26.07.2018 11:44 33,0 C 40,0 C 27,8 C 51 % 1012,5 hPa 0,0 l/m 2 min 0 min 636 W/m 6,8 km/h (2 Bft) 97,83 %
26.07.2018 11:46 33,1 C 38,9 C 28,3 C 49 % 1012,5 hPa 0,0 l/m 2 min 0 min 524 W/m 9,0 km/h (2 Bft) 97,87 %
26.07.2018 11:48 33,2 C 38,9 C 28,3 C 49 % 1012,5 hPa 0,0 l/m 2 min 0 min 621 W/m 9,0 km/h (2 Bft) 97,87 %
26.07.2018 11:50 33,3 C 39,4 C 27,8 C 52 % 1012,5 hPa 0,0 l/m 2 min 0 min 597 W/m 4,5 km/h (1 Bft) 97,87 %
26.07.2018 11:52 33,4 C 40,6 C 27,8 C 50 % 1012,5 hPa 0,0 l/m 2 min 0 min 722 W/m 4,5 km/h (1 Bft) 97,14 %
26.07.2018 11:54 33,5 C 40,6 C 28,3 C 48 % 1012,4 hPa 0,0 l/m 2 min 0 min 747 W/m 4,5 km/h (1 Bft) 97,87 %
26.07.2018 11:56 33,6 C 41,7 C 28,3 C 49 % 1012,4 hPa 0,0 l/m 2 min 0 min 761 W/m 2,3 km/h (1 Bft) 97,87 %
26.07.2018 11:58 33,7 C 42,2 C 28,3 C 51 % 1012,4 hPa 0,0 l/m 2 min 0 min 767 W/m 4,5 km/h (1 Bft) 95,74 %
26.07.2018 12:00 33,9 C 42,8 C 28,3 C 52 % 1012,5 hPa 0,0 l/m 2 min 0 min 756 W/m 11,3 km/h (2 Bft) 97,83 %
26.07.2018 12:02 33,9 C 41,1 C 28,9 C 48 % 1012,4 hPa 0,0 l/m 2 min 0 min 756 W/m 9,0 km/h (2 Bft) 97,87 %
26.07.2018 12:04 34,1 C 41,1 C 28,9 C 48 % 1012,4 hPa 0,0 l/m 2 min 0 min 749 W/m 6,8 km/h (2 Bft) 97,87 %
26.07.2018 12:08 34,3 C 41,7 C 28,9 C 49 % 1012,4 hPa 0,0 l/m 4 min 0 min 764 W/m 13,5 km/h (3 Bft) 98,02 %
26.07.2018 12:10 34,4 C 42,8 C 29,4 C 50 % 1012,4 hPa 0,0 l/m 2 min 0 min 766 W/m 6,8 km/h (2 Bft) 100,00 %
26.07.2018 12:12 34,6 C 42,8 C 29,4 C 50 % 1012,4 hPa 0,0 l/m 2 min 0 min 770 W/m 9,0 km/h (2 Bft) 100,00 %
26.07.2018 12:14 34,6 C 43,3 C 29,4 C 48 % 1012,3 hPa 0,0 l/m 2 min 0 min 776 W/m 6,8 km/h (2 Bft) 97,87 %
26.07.2018 12:16 34,7 C 43,3 C 29,4 C 47 % 1012,3 hPa 0,0 l/m 2 min 0 min 755 W/m 6,8 km/h (2 Bft) 100,00 %
26.07.2018 12:18 34,8 C 43,3 C 29,4 C 50 % 1012,3 hPa 0,0 l/m 2 min 0 min 742 W/m 2,3 km/h (1 Bft) 97,87 %
26.07.2018 12:20 34,8 C 42,2 C 29,4 C 47 % 1012,2 hPa 0,0 l/m 2 min 0 min 740 W/m 6,8 km/h (2 Bft) 100,00 %
26.07.2018 12:22 34,8 C 41,7 C 29,4 C 45 % 1012,2 hPa 0,0 l/m 2 min 0 min 749 W/m 4,5 km/h (1 Bft) 97,87 %
26.07.2018 12:24 34,9 C 41,7 C 29,4 C 46 % 1012,2 hPa 0,0 l/m 2 min 0 min 786 W/m 11,3 km/h (2 Bft) 100,00 %
26.07.2018 12:26 35,0 C 41,7 C 30,0 C 46 % 1012,2 hPa 0,0 l/m 2 min 0 min 795 W/m 6,8 km/h (2 Bft) 100,00 %
26.07.2018 12:28 35,1 C 42,2 C 30,0 C 46 % 1012,2 hPa 0,0 l/m 2 min 0 min 798 W/m 4,5 km/h (1 Bft) 100,00 %
26.07.2018 12:30 35,2 C 42,8 C 30,0 C 48 % 1012,2 hPa 0,0 l/m 2 min 0 min 798 W/m 6,8 km/h (2 Bft) 97,83 %
26.07.2018 12:32 35,2 C 41,7 C 30,0 C 45 % 1012,2 hPa 0,0 l/m 2 min 0 min 578 W/m 9,0 km/h (2 Bft) 100,00 %
26.07.2018 12:34 35,3 C 42,2 C 30,0 C 46 % 1012,1 hPa 0,0 l/m 0 min 0 min 228 W/m 6,8 km/h (2 Bft) 97,87 %
26.07.2018 12:36 35,4 C 42,8 C 30,0 C 46 % 1012,1 hPa 0,0 l/m 0 min 0 min 225 W/m 9,0 km/h (2 Bft) 100,00 %
26.07.2018 12:38 35,4 C 42,8 C 30,0 C 45 % 1012,1 hPa 0,0 l/m 0 min 0 min 230 W/m 9,0 km/h (2 Bft) 100,00 %
26.07.2018 12:40 35,5 C 42,2 C 30,6 C 44 % 1012,1 hPa 0,0 l/m 0 min 0 min 205 W/m 11,3 km/h (2 Bft) 100,00 %
26.07.2018 12:42 35,6 C 42,8 C 30,6 C 45 % 1012,0 hPa 0,0 l/m 0 min 0 min 311 W/m 6,8 km/h (2 Bft) 97,83 %
26.07.2018 12:44 35,6 C 42,8 C 30,6 C 45 % 1012,0 hPa 0,0 l/m 2 min 0 min 673 W/m 9,0 km/h (2 Bft) 97,87 %
26.07.2018 12:46 35,6 C 42,8 C 30,6 C 44 % 1012,0 hPa 0,0 l/m 2 min 0 min 714 W/m 6,8 km/h (2 Bft) 97,87 %
26.07.2018 12:48 35,7 C 40,6 C 31,1 C 41 % 1012,0 hPa 0,0 l/m 2 min 0 min 580 W/m 13,5 km/h (3 Bft) 97,87 %
26.07.2018 12:50 35,7 C 41,7 C 30,6 C 43 % 1012,1 hPa 0,0 l/m 0 min 0 min 178 W/m 9,0 km/h (2 Bft) 97,87 %
26.07.2018 12:52 35,8 C 42,2 C 31,1 C 43 % 1012,1 hPa 0,0 l/m 2 min 0 min 537 W/m 9,0 km/h (2 Bft) 97,87 %
26.07.2018 12:54 35,9 C 42,2 C 31,1 C 41 % 1012,0 hPa 0,0 l/m 2 min 0 min 572 W/m 9,0 km/h (2 Bft) 97,83 %
26.07.2018 12:56 35,9 C 41,1 C 30,6 C 40 % 1012,0 hPa 0,0 l/m 2 min 0 min 516 W/m 9,0 km/h (2 Bft) 97,87 %
26.07.2018 12:58 36,0 C 41,1 C 31,1 C 41 % 1011,9 hPa 0,0 l/m 2 min 0 min 439 W/m 9,0 km/h (2 Bft) 97,87 %
26.07.2018 13:00 36,0 C 41,7 C 31,1 C 40 % 1011,9 hPa 0,0 l/m 2 min 0 min 542 W/m 9,0 km/h (2 Bft) 97,87 %
26.07.2018 13:02 36,1 C 42,2 C 31,1 C 41 % 1012,0 hPa 0,0 l/m 2 min 0 min 794 W/m 6,8 km/h (2 Bft) 95,74 %
26.07.2018 13:04 36,1 C 42,2 C 31,1 C 41 % 1011,9 hPa 0,0 l/m 2 min 0 min 794 W/m 6,8 km/h (2 Bft) 97,87 %
26.07.2018 13:06 36,1 C 42,8 C 31,7 C 41 % 1011,9 hPa 0,0 l/m 2 min 0 min 786 W/m 9,0 km/h (2 Bft) 97,56 %
26.07.2018 13:08 36,2 C 42,8 C 31,7 C 42 % 1011,9 hPa 0,0 l/m 2 min 0 min 785 W/m 9,0 km/h (2 Bft) 100,00 %
26.07.2018 13:10 36,2 C 42,2 C 31,7 C 40 % 1011,9 hPa 0,0 l/m 2 min 0 min 794 W/m 18,0 km/h (3 Bft) 93,62 %
26.07.2018 13:12 36,2 C 42,2 C 31,7 C 42 % 1011,8 hPa 0,0 l/m 2 min 0 min 801 W/m 13,5 km/h (3 Bft) 97,87 %
26.07.2018 13:14 36,2 C 41,7 C 31,7 C 41 % 1011,8 hPa 0,0 l/m 2 min 0 min 808 W/m 11,3 km/h (2 Bft) 100,00 %
26.07.2018 13:16 36,2 C 41,1 C 31,7 C 39 % 1011,9 hPa 0,0 l/m 2 min 0 min 798 W/m 15,8 km/h (3 Bft) 100,00 %
26.07.2018 13:18 36,3 C 41,1 C 31,7 C 40 % 1011,9 hPa 0,0 l/m 2 min 0 min 805 W/m 9,0 km/h (2 Bft) 97,87 %
26.07.2018 13:20 36,3 C 42,8 C 31,7 C 41 % 1011,9 hPa 0,0 l/m 2 min 0 min 809 W/m 6,8 km/h (2 Bft) 100,00 %
26.07.2018 13:22 36,3 C 42,8 C 31,7 C 40 % 1011,8 hPa 0,0 l/m 2 min 0 min 810 W/m 9,0 km/h (2 Bft) 100,00 %
26.07.2018 13:24 36,3 C 42,8 C 31,7 C 40 % 1011,8 hPa 0,0 l/m 2 min 0 min 805 W/m 9,0 km/h (2 Bft) 100,00 %
26.07.2018 13:26 36,4 C 42,2 C 32,2 C 40 % 1011,8 hPa 0,0 l/m 2 min 0 min 804 W/m 11,3 km/h (2 Bft) 100,00 %
26.07.2018 13:28 36,4 C 42,8 C 32,2 C 40 % 1011,8 hPa 0,0 l/m 2 min 0 min 813 W/m 11,3 km/h (2 Bft) 100,00 %
26.07.2018 13:30 36,4 C 41,7 C 32,2 C 40 % 1011,8 hPa 0,0 l/m 2 min 0 min 797 W/m 4,5 km/h (1 Bft) 100,00 %
26.07.2018 13:32 36,4 C 41,1 C 32,2 C 41 % 1011,7 hPa 0,0 l/m 2 min 0 min 793 W/m 11,3 km/h (2 Bft) 100,00 %
26.07.2018 13:34 36,5 C 40,0 C 32,2 C 41 % 1011,7 hPa 0,0 l/m 2 min 0 min 791 W/m 6,8 km/h (2 Bft) 100,00 %
26.07.2018 13:36 36,6 C 40,0 C 32,2 C 40 % 1011,7 hPa 0,0 l/m 2 min 0 min 803 W/m 4,5 km/h (1 Bft) 100,00 %
26.07.2018 13:38 36,6 C 38,9 C 32,2 C 40 % 1011,7 hPa 0,0 l/m 2 min 0 min 794 W/m 11,3 km/h (2 Bft) 100,00 %
26.07.2018 13:40 36,6 C 37,2 C 32,2 C 40 % 1011,8 hPa 0,0 l/m 2 min 0 min 805 W/m 11,3 km/h (2 Bft) 100,00 %
26.07.2018 13:42 36,6 C 36,7 C 32,2 C 41 % 1011,7 hPa 0,0 l/m 2 min 0 min 816 W/m 6,8 km/h (2 Bft) 100,00 %
26.07.2018 13:44 36,5 C 36,7 C 32,2 C 40 % 1011,7 hPa 0,0 l/m 2 min 0 min 818 W/m 6,8 km/h (2 Bft) 100,00 %
26.07.2018 13:46 36,5 C 36,1 C 32,2 C 41 % 1011,8 hPa 0,0 l/m 2 min 0 min 817 W/m 13,5 km/h (3 Bft) 100,00 %
26.07.2018 13:48 36,5 C 36,1 C 32,2 C 41 % 1011,6 hPa 0,0 l/m 2 min 0 min 824 W/m 4,5 km/h (1 Bft) 97,87 %
26.07.2018 13:50 36,4 C 36,1 C 32,2 C 42 % 1011,6 hPa 0,0 l/m 2 min 0 min 827 W/m 6,8 km/h (2 Bft) 100,00 %
26.07.2018 13:52 36,4 C 36,1 C 32,8 C 42 % 1011,5 hPa 0,0 l/m 2 min 0 min 831 W/m 13,5 km/h (3 Bft) 100,00 %
26.07.2018 13:54 36,4 C 36,1 C 32,8 C 40 % 1011,6 hPa 0,0 l/m 2 min 0 min 826 W/m 11,3 km/h (2 Bft) 100,00 %
26.07.2018 13:56 36,3 C 36,1 C 32,8 C 39 % 1011,6 hPa 0,0 l/m 2 min 0 min 827 W/m 13,5 km/h (3 Bft) 100,00 %
26.07.2018 13:58 36,3 C 35,6 C 32,8 C 39 % 1011,5 hPa 0,0 l/m 2 min 0 min 827 W/m 13,5 km/h (3 Bft) 100,00 %
26.07.2018 14:00 36,3 C 35,6 C 32,8 C 38 % 1011,6 hPa 0,0 l/m 2 min 0 min 814 W/m 15,8 km/h (3 Bft) 97,87 %
26.07.2018 14:02 36,3 C 35,6 C 32,8 C 40 % 1011,6 hPa 0,0 l/m 2 min 0 min 820 W/m 9,0 km/h (2 Bft) 100,00 %
26.07.2018 14:04 36,2 C 35,6 C 32,8 C 41 % 1011,6 hPa 0,0 l/m 2 min 0 min 816 W/m 11,3 km/h (2 Bft) 100,00 %
26.07.2018 14:06 36,2 C 35,6 C 32,2 C 41 % 1011,5 hPa 0,0 l/m 2 min 0 min 828 W/m 6,8 km/h (2 Bft) 100,00 %
26.07.2018 14:08 36,2 C 35,6 C 32,8 C 39 % 1011,5 hPa 0,0 l/m 2 min 0 min 831 W/m 11,3 km/h (2 Bft) 100,00 %
26.07.2018 14:10 36,1 C 35,6 C 32,2 C 40 % 1011,4 hPa 0,0 l/m 2 min 0 min 820 W/m 9,0 km/h (2 Bft) 100,00 %
26.07.2018 14:12 36,1 C 35,6 C 32,8 C 38 % 1011,5 hPa 0,0 l/m 2 min 0 min 822 W/m 11,3 km/h (2 Bft) 100,00 %
26.07.2018 14:14 36,1 C 35,6 C 32,8 C 39 % 1011,4 hPa 0,0 l/m 2 min 0 min 819 W/m 9,0 km/h (2 Bft) 97,87 %
26.07.2018 14:16 36,1 C 36,1 C 32,8 C 39 % 1011,4 hPa 0,0 l/m 2 min 0 min 824 W/m 9,0 km/h (2 Bft) 97,92 %
26.07.2018 14:18 36,1 C 35,6 C 32,8 C 39 % 1011,4 hPa 0,0 l/m 2 min 0 min 820 W/m 13,5 km/h (3 Bft) 95,65 %
26.07.2018 14:20 36,1 C 35,6 C 32,2 C 39 % 1011,4 hPa 0,0 l/m 2 min 0 min 813 W/m 9,0 km/h (2 Bft) 98,31 %
26.07.2018 14:22 36,1 C 35,6 C 32,8 C 40 % 1011,4 hPa 0,0 l/m 2 min 0 min 814 W/m 9,0 km/h (2 Bft) 100,00 %
26.07.2018 14:24 36,1 C 35,6 C 32,2 C 40 % 1011,4 hPa 0,0 l/m 2 min 0 min 816 W/m 11,3 km/h (2 Bft) 97,14 %
26.07.2018 14:26 36,0 C 35,6 C 32,2 C 40 % 1011,3 hPa 0,0 l/m 2 min 0 min 808 W/m 6,8 km/h (2 Bft) 97,87 %
26.07.2018 14:28 36,0 C 35,6 C 32,8 C 40 % 1011,3 hPa 0,0 l/m 2 min 0 min 811 W/m 6,8 km/h (2 Bft) 97,87 %
26.07.2018 14:30 36,0 C 35,6 C 32,2 C 41 % 1011,2 hPa 0,0 l/m 2 min 0 min 812 W/m 6,8 km/h (2 Bft) 95,65 %
26.07.2018 14:32 36,0 C 35,6 C 32,2 C 40 % 1011,2 hPa 0,0 l/m 2 min 0 min 818 W/m 13,5 km/h (3 Bft) 97,87 %
26.07.2018 14:34 35,9 C 35,6 C 32,2 C 40 % 1011,2 hPa 0,0 l/m 2 min 0 min 820 W/m 11,3 km/h (2 Bft) 95,74 %
26.07.2018 14:36 35,9 C 35,6 C 32,8 C 39 % 1011,3 hPa 0,0 l/m 2 min 0 min 822 W/m 13,5 km/h (3 Bft) 95,74 %
26.07.2018 14:38 35,9 C 35,6 C 32,8 C 39 % 1011,2 hPa 0,0 l/m 2 min 0 min 825 W/m 13,5 km/h (3 Bft) 95,74 %
26.07.2018 14:40 35,9 C 35,6 C 32,2 C 41 % 1011,2 hPa 0,0 l/m 2 min 0 min 823 W/m 4,5 km/h (1 Bft) 95,74 %
26.07.2018 14:42 35,9 C 36,1 C 32,2 C 43 % 1011,2 hPa 0,0 l/m 2 min 0 min 810 W/m 4,5 km/h (1 Bft) 93,48 %
26.07.2018 14:44 35,9 C 36,1 C 32,8 C 40 % 1011,1 hPa 0,0 l/m 2 min 0 min 804 W/m 13,5 km/h (3 Bft) 93,62 %
26.07.2018 14:46 35,9 C 35,6 C 32,8 C 40 % 1011,2 hPa 0,0 l/m 2 min 0 min 811 W/m 15,8 km/h (3 Bft) 95,74 %
26.07.2018 14:48 35,9 C 35,6 C 32,2 C 39 % 1011,1 hPa 0,0 l/m 2 min 0 min 822 W/m 9,0 km/h (2 Bft) 95,74 %
26.07.2018 14:50 35,9 C 35,6 C 32,8 C 39 % 1011,1 hPa 0,0 l/m 2 min 0 min 819 W/m 11,3 km/h (2 Bft) 96,55 %
26.07.2018 14:52 35,9 C 35,6 C 32,8 C 39 % 1011,1 hPa 0,0 l/m 2 min 0 min 814 W/m 15,8 km/h (3 Bft) 97,87 %
26.07.2018 14:54 35,9 C 35,6 C 32,8 C 38 % 1011,0 hPa 0,0 l/m 2 min 0 min 815 W/m 15,8 km/h (3 Bft) 97,14 %
26.07.2018 14:56 35,9 C 35,6 C 32,8 C 39 % 1011,0 hPa 0,0 l/m 2 min 0 min 830 W/m 11,3 km/h (2 Bft) 97,87 %
26.07.2018 14:58 35,9 C 35,6 C 32,8 C 39 % 1011,0 hPa 0,0 l/m 2 min 0 min 831 W/m 6,8 km/h (2 Bft) 95,74 %
26.07.2018 15:00 35,9 C 36,1 C 32,8 C 38 % 1010,9 hPa 0,0 l/m 2 min 0 min 827 W/m 6,8 km/h (2 Bft) 97,87 %
26.07.2018 15:02 36,0 C 36,1 C 32,8 C 39 % 1010,9 hPa 0,0 l/m 2 min 0 min 821 W/m 11,3 km/h (2 Bft) 97,87 %
26.07.2018 15:04 36,0 C 36,1 C 32,8 C 39 % 1011,0 hPa 0,0 l/m 2 min 0 min 826 W/m 13,5 km/h (3 Bft) 97,87 %
26.07.2018 15:06 36,0 C 36,1 C 33,3 C 38 % 1010,9 hPa 0,0 l/m 2 min 0 min 826 W/m 11,3 km/h (2 Bft) 97,83 %
26.07.2018 15:08 36,1 C 35,6 C 33,3 C 38 % 1010,9 hPa 0,0 l/m 2 min 0 min 821 W/m 13,5 km/h (3 Bft) 97,87 %
26.07.2018 15:10 36,1 C 35,6 C 33,3 C 40 % 1010,8 hPa 0,0 l/m 2 min 0 min 825 W/m 6,8 km/h (2 Bft) 95,74 %
26.07.2018 15:12 36,1 C 35,6 C 32,8 C 37 % 1010,8 hPa 0,0 l/m 2 min 0 min 826 W/m 20,3 km/h (4 Bft) 97,87 %
26.07.2018 15:14 36,1 C 36,1 C 32,8 C 38 % 1010,8 hPa 0,0 l/m 2 min 0 min 822 W/m 13,5 km/h (3 Bft) 97,87 %
26.07.2018 15:16 36,1 C 36,1 C 33,3 C 37 % 1010,9 hPa 0,0 l/m 2 min 0 min 826 W/m 15,8 km/h (3 Bft) 97,83 %
26.07.2018 15:18 36,1 C 36,1 C 32,8 C 37 % 1010,8 hPa 0,0 l/m 2 min 0 min 831 W/m 9,0 km/h (2 Bft) 97,87 %
26.07.2018 15:20 36,2 C 36,7 C 33,3 C 38 % 1010,8 hPa 0,0 l/m 2 min 0 min 820 W/m 11,3 km/h (2 Bft) 98,31 %
26.07.2018 15:22 36,2 C 36,7 C 33,3 C 36 % 1010,8 hPa 0,0 l/m 2 min 0 min 807 W/m 11,3 km/h (2 Bft) 97,87 %
26.07.2018 15:24 36,2 C 36,7 C 33,3 C 37 % 1010,8 hPa 0,0 l/m 2 min 0 min 814 W/m 11,3 km/h (2 Bft) 97,14 %
26.07.2018 15:26 36,2 C 36,1 C 33,3 C 37 % 1010,7 hPa 0,0 l/m 2 min 0 min 813 W/m 11,3 km/h (2 Bft) 100,00 %
26.07.2018 15:28 36,3 C 36,1 C 33,3 C 37 % 1010,7 hPa 0,0 l/m 2 min 0 min 840 W/m 6,8 km/h (2 Bft) 97,83 %
26.07.2018 15:30 36,3 C 36,1 C 33,3 C 37 % 1010,7 hPa 0,0 l/m 2 min 0 min 844 W/m 15,8 km/h (3 Bft) 100,00 %
26.07.2018 15:32 36,3 C 36,7 C 33,3 C 39 % 1010,7 hPa 0,0 l/m 2 min 0 min 845 W/m 6,8 km/h (2 Bft) 97,87 %
26.07.2018 15:34 36,4 C 36,7 C 33,3 C 37 % 1010,6 hPa 0,0 l/m 2 min 0 min 852 W/m 13,5 km/h (3 Bft) 100,00 %
26.07.2018 15:36 36,4 C 36,7 C 33,3 C 37 % 1010,6 hPa 0,0 l/m 2 min 0 min 857 W/m 11,3 km/h (2 Bft) 100,00 %
26.07.2018 15:38 36,4 C 37,2 C 33,3 C 37 % 1010,7 hPa 0,0 l/m 2 min 0 min 860 W/m 13,5 km/h (3 Bft) 97,87 %
26.07.2018 15:40 36,5 C 37,2 C 33,3 C 38 % 1010,6 hPa 0,0 l/m 2 min 0 min 856 W/m 18,0 km/h (3 Bft) 100,00 %
26.07.2018 15:42 36,6 C 37,2 C 33,3 C 40 % 1010,6 hPa 0,0 l/m 2 min 0 min 853 W/m 6,8 km/h (2 Bft) 100,00 %
26.07.2018 15:44 36,6 C 37,2 C 33,3 C 37 % 1010,6 hPa 0,0 l/m 2 min 0 min 861 W/m 9,0 km/h (2 Bft) 100,00 %
26.07.2018 15:46 36,7 C 37,8 C 33,3 C 40 % 1010,6 hPa 0,0 l/m 2 min 0 min 871 W/m 2,3 km/h (1 Bft) 97,92 %
26.07.2018 15:48 36,7 C 37,8 C 33,9 C 38 % 1010,5 hPa 0,0 l/m 2 min 0 min 878 W/m 11,3 km/h (2 Bft) 100,00 %
26.07.2018 15:50 36,8 C 38,9 C 33,9 C 39 % 1010,5 hPa 0,0 l/m 2 min 0 min 892 W/m 9,0 km/h (2 Bft) 100,00 %
26.07.2018 15:52 36,8 C 38,9 C 33,3 C 37 % 1010,5 hPa 0,0 l/m 2 min 0 min 899 W/m 9,0 km/h (2 Bft) 100,00 %
26.07.2018 15:54 36,9 C 38,9 C 33,9 C 37 % 1010,5 hPa 0,0 l/m 2 min 0 min 892 W/m 9,0 km/h (2 Bft) 100,00 %
26.07.2018 15:56 36,9 C 39,4 C 33,9 C 39 % 1010,5 hPa 0,0 l/m 2 min 0 min 885 W/m 9,0 km/h (2 Bft) 100,00 %
26.07.2018 15:58 37,0 C 40,0 C 33,9 C 41 % 1010,6 hPa 0,0 l/m 2 min 0 min 880 W/m 9,0 km/h (2 Bft) 100,00 %
26.07.2018 16:00 37,1 C 40,0 C 33,9 C 39 % 1010,6 hPa 0,0 l/m 2 min 0 min 838 W/m 11,3 km/h (2 Bft) 100,00 %
26.07.2018 16:02 37,2 C 39,4 C 33,9 C 40 % 1010,5 hPa 0,0 l/m 2 min 0 min 681 W/m 11,3 km/h (2 Bft) 97,87 %
26.07.2018 16:04 37,2 C 38,9 C 33,3 C 39 % 1010,5 hPa 0,0 l/m 2 min 0 min 422 W/m 9,0 km/h (2 Bft) 97,83 %
26.07.2018 16:06 37,2 C 38,3 C 33,3 C 40 % 1010,5 hPa 0,0 l/m 0 min 0 min 317 W/m 9,0 km/h (2 Bft) 98,15 %
26.07.2018 16:08 37,2 C 37,8 C 33,3 C 40 % 1010,5 hPa 0,0 l/m 0 min 0 min 348 W/m 9,0 km/h (2 Bft) 100,00 %
26.07.2018 16:10 37,1 C 38,3 C 33,3 C 40 % 1010,5 hPa 0,0 l/m 2 min 0 min 382 W/m 9,0 km/h (2 Bft) 100,00 %
26.07.2018 16:12 37,1 C 39,4 C 33,3 C 40 % 1010,5 hPa 0,0 l/m 2 min 0 min 870 W/m 11,3 km/h (2 Bft) 100,00 %
26.07.2018 16:14 37,0 C 39,4 C 33,3 C 39 % 1010,5 hPa 0,0 l/m 2 min 0 min 734 W/m 9,0 km/h (2 Bft) 95,74 %
26.07.2018 16:16 37,0 C 38,3 C 33,3 C 39 % 1010,5 hPa 0,0 l/m 2 min 0 min 349 W/m 9,0 km/h (2 Bft) 97,87 %
26.07.2018 16:18 36,9 C 37,2 C 33,3 C 39 % 1010,5 hPa 0,0 l/m 0 min 0 min 264 W/m 11,3 km/h (2 Bft) 100,00 %
26.07.2018 16:20 36,8 C 36,7 C 32,8 C 39 % 1010,4 hPa 0,0 l/m 0 min 0 min 243 W/m 13,5 km/h (3 Bft) 100,00 %
26.07.2018 16:22 36,7 C 35,6 C 32,8 C 39 % 1010,5 hPa 0,0 l/m 0 min 0 min 220 W/m 9,0 km/h (2 Bft) 100,00 %
26.07.2018 16:24 36,6 C 35,6 C 32,8 C 39 % 1010,4 hPa 0,0 l/m 0 min 0 min 203 W/m 9,0 km/h (2 Bft) 97,83 %
26.07.2018 16:26 36,6 C 35,0 C 32,2 C 39 % 1010,5 hPa 0,0 l/m 0 min 0 min 203 W/m 9,0 km/h (2 Bft) 97,87 %
26.07.2018 16:28 36,4 C 35,0 C 32,2 C 40 % 1010,4 hPa 0,0 l/m 0 min 2 min 214 W/m 6,8 km/h (2 Bft) 97,87 %
26.07.2018 16:30 36,3 C 33,9 C 32,2 C 42 % 1010,4 hPa 0,0 l/m 0 min 2 min 232 W/m 6,8 km/h (2 Bft) 97,87 %
26.07.2018 16:32 36,1 C 33,3 C 31,7 C 42 % 1010,4 hPa 0,0 l/m 0 min 2 min 241 W/m 11,3 km/h (2 Bft) 97,96 %
26.07.2018 16:34 36,0 C 34,4 C 31,7 C 42 % 1010,5 hPa 0,0 l/m 0 min 2 min 247 W/m 11,3 km/h (2 Bft) 97,87 %
26.07.2018 16:36 35,9 C 36,1 C 31,7 C 42 % 1010,5 hPa 0,0 l/m 2 min 0 min 604 W/m 4,5 km/h (1 Bft) 97,83 %
26.07.2018 16:38 35,8 C 37,8 C 32,2 C 42 % 1010,5 hPa 0,0 l/m 2 min 2 min 790 W/m 6,8 km/h (2 Bft) 95,74 %
26.07.2018 16:40 35,7 C 38,9 C 32,8 C 43 % 1010,4 hPa 0,0 l/m 2 min 2 min 777 W/m 9,0 km/h (2 Bft) 97,87 %
26.07.2018 16:42 35,7 C 39,4 C 32,8 C 42 % 1010,4 hPa 0,0 l/m 2 min 0 min 768 W/m 6,8 km/h (2 Bft) 97,92 %
26.07.2018 16:44 35,7 C 39,4 C 32,8 C 42 % 1010,4 hPa 0,0 l/m 2 min 0 min 765 W/m 4,5 km/h (1 Bft) 97,87 %
26.07.2018 16:46 35,7 C 39,4 C 32,8 C 42 % 1010,3 hPa 0,0 l/m 2 min 0 min 749 W/m 6,8 km/h (2 Bft) 97,83 %
26.07.2018 16:48 35,6 C 39,4 C 33,3 C 41 % 1010,3 hPa 0,0 l/m 2 min 0 min 733 W/m 11,3 km/h (2 Bft) 97,87 %
26.07.2018 16:50 35,7 C 40,0 C 33,3 C 42 % 1010,4 hPa 0,0 l/m 2 min 0 min 726 W/m 9,0 km/h (2 Bft) 91,49 %
26.07.2018 16:52 35,7 C 39,4 C 33,3 C 41 % 1010,4 hPa 0,0 l/m 2 min 0 min 692 W/m 15,8 km/h (3 Bft) 95,74 %
26.07.2018 16:54 35,7 C 37,8 C 32,8 C 42 % 1010,3 hPa 0,0 l/m 2 min 0 min 673 W/m 6,8 km/h (2 Bft) 95,74 %
26.07.2018 16:56 35,7 C 37,2 C 32,8 C 40 % 1010,4 hPa 0,0 l/m 0 min 0 min 281 W/m 9,0 km/h (2 Bft) 93,62 %
26.07.2018 16:58 35,7 C 36,1 C 32,2 C 41 % 1010,4 hPa 0,0 l/m 0 min 0 min 202 W/m 9,0 km/h (2 Bft) 95,65 %
26.07.2018 17:00 35,7 C 36,1 C 32,2 C 40 % 1010,4 hPa 0,0 l/m 0 min 0 min 204 W/m 6,8 km/h (2 Bft) 95,74 %
26.07.2018 17:02 35,6 C 35,6 C 32,2 C 40 % 1010,4 hPa 0,0 l/m 0 min 0 min 201 W/m 6,8 km/h (2 Bft) 95,92 %
26.07.2018 17:04 35,6 C 35,0 C 32,2 C 39 % 1010,5 hPa 0,0 l/m 0 min 0 min 195 W/m 20,3 km/h (4 Bft) 95,74 %
26.07.2018 17:06 35,6 C 34,4 C 31,7 C 40 % 1010,5 hPa 0,0 l/m 0 min 0 min 200 W/m 13,5 km/h (3 Bft) 93,62 %
26.07.2018 17:08 35,5 C 33,9 C 31,7 C 40 % 1010,4 hPa 0,0 l/m 0 min 0 min 208 W/m 15,8 km/h (3 Bft) 95,74 %
26.07.2018 17:10 35,4 C 33,9 C 31,7 C 38 % 1010,4 hPa 0,0 l/m 0 min 0 min 205 W/m 22,5 km/h (4 Bft) 95,65 %
26.07.2018 17:12 35,3 C 33,9 C 31,1 C 39 % 1010,3 hPa 0,0 l/m 0 min 0 min 201 W/m 18,0 km/h (3 Bft) 95,74 %
26.07.2018 17:14 35,2 C 33,9 C 31,1 C 39 % 1010,4 hPa 0,0 l/m 0 min 0 min 202 W/m 15,8 km/h (3 Bft) 95,74 %
26.07.2018 17:16 35,1 C 33,3 C 31,1 C 39 % 1010,4 hPa 0,0 l/m 0 min 0 min 199 W/m 20,3 km/h (4 Bft) 95,74 %
26.07.2018 17:18 35,0 C 33,3 C 31,1 C 38 % 1010,4 hPa 0,0 l/m 0 min 0 min 199 W/m 20,3 km/h (4 Bft) 95,74 %
26.07.2018 17:20 34,9 C 33,3 C 31,1 C 38 % 1010,3 hPa 0,0 l/m 0 min 0 min 197 W/m 15,8 km/h (3 Bft) 93,62 %
26.07.2018 17:22 34,8 C 33,3 C 31,1 C 38 % 1010,3 hPa 0,0 l/m 0 min 0 min 196 W/m 18,0 km/h (3 Bft) 93,62 %
26.07.2018 17:24 34,7 C 33,3 C 31,1 C 38 % 1010,4 hPa 0,0 l/m 0 min 0 min 193 W/m 20,3 km/h (4 Bft) 95,74 %
26.07.2018 17:26 34,6 C 33,3 C 31,1 C 38 % 1010,4 hPa 0,0 l/m 0 min 0 min 197 W/m 15,8 km/h (3 Bft) 93,62 %
26.07.2018 17:28 34,5 C 33,3 C 31,1 C 38 % 1010,4 hPa 0,0 l/m 0 min 0 min 207 W/m 22,5 km/h (4 Bft) 93,62 %
26.07.2018 17:30 34,4 C 33,3 C 31,1 C 38 % 1010,4 hPa 0,0 l/m 0 min 0 min 221 W/m 13,5 km/h (3 Bft) 95,74 %
26.07.2018 17:32 34,4 C 33,9 C 31,1 C 39 % 1010,4 hPa 0,0 l/m 0 min 0 min 229 W/m 11,3 km/h (2 Bft) 97,22 %
26.07.2018 17:34 34,3 C 33,9 C 31,1 C 39 % 1010,3 hPa 0,0 l/m 0 min 0 min 230 W/m 9,0 km/h (2 Bft) 95,74 %
26.07.2018 17:36 34,3 C 33,9 C 31,1 C 38 % 1010,3 hPa 0,0 l/m 0 min 0 min 228 W/m 11,3 km/h (2 Bft) 97,87 %
26.07.2018 17:38 34,2 C 33,9 C 31,1 C 38 % 1010,4 hPa 0,0 l/m 0 min 0 min 235 W/m 9,0 km/h (2 Bft) 100,00 %
26.07.2018 17:40 34,2 C 33,9 C 31,1 C 38 % 1010,3 hPa 0,0 l/m 0 min 0 min 241 W/m 6,8 km/h (2 Bft) 100,00 %
26.07.2018 17:42 34,2 C 33,9 C 31,1 C 40 % 1010,4 hPa 0,0 l/m 0 min 0 min 241 W/m 2,3 km/h (1 Bft) 95,74 %
26.07.2018 17:44 34,2 C 33,9 C 31,1 C 42 % 1010,4 hPa 0,0 l/m 0 min 0 min 238 W/m 2,3 km/h (1 Bft) 97,87 %
26.07.2018 17:46 34,2 C 33,9 C 31,1 C 43 % 1010,3 hPa 0,0 l/m 2 min 0 min 290 W/m 4,5 km/h (1 Bft) 100,00 %
26.07.2018 17:48 34,2 C 34,4 C 31,1 C 43 % 1010,3 hPa 0,0 l/m 2 min 0 min 393 W/m 2,3 km/h (1 Bft) 100,00 %
26.07.2018 17:50 34,2 C 34,4 C 31,1 C 43 % 1010,2 hPa 0,0 l/m 2 min 0 min 403 W/m 4,5 km/h (1 Bft) 100,00 %
26.07.2018 17:52 34,1 C 34,4 C 31,7 C 42 % 1010,1 hPa 0,0 l/m 2 min 0 min 403 W/m 4,5 km/h (1 Bft) 100,00 %
26.07.2018 17:54 34,1 C 34,4 C 31,7 C 42 % 1010,0 hPa 0,0 l/m 2 min 0 min 388 W/m 6,8 km/h (2 Bft) 100,00 %
26.07.2018 17:56 34,1 C 35,0 C 32,2 C 40 % 1010,0 hPa 0,0 l/m 2 min 0 min 520 W/m 9,0 km/h (2 Bft) 100,00 %
26.07.2018 17:58 34,1 C 35,0 C 32,2 C 41 % 1010,0 hPa 0,0 l/m 2 min 0 min 595 W/m 6,8 km/h (2 Bft) 100,00 %
26.07.2018 18:00 34,1 C 35,6 C 32,8 C 40 % 1010,0 hPa 0,0 l/m 2 min 0 min 557 W/m 6,8 km/h (2 Bft) 100,00 %
26.07.2018 18:02 34,2 C 35,6 C 32,8 C 43 % 1009,9 hPa 0,0 l/m 2 min 0 min 541 W/m 4,5 km/h (1 Bft) 100,00 %
26.07.2018 18:04 34,2 C 35,6 C 32,8 C 42 % 1010,0 hPa 0,0 l/m 2 min 0 min 455 W/m 6,8 km/h (2 Bft) 100,00 %
26.07.2018 18:08 34,3 C 35,6 C 32,8 C 42 % 1010,0 hPa 0,0 l/m 4 min 0 min 419 W/m 6,8 km/h (2 Bft) 100,00 %
26.07.2018 18:10 34,3 C 35,0 C 32,8 C 42 % 1010,0 hPa 0,0 l/m 2 min 0 min 349 W/m 4,5 km/h (1 Bft) 100,00 %
26.07.2018 18:12 34,3 C 35,0 C 32,8 C 42 % 1009,9 hPa 0,0 l/m 0 min 0 min 184 W/m 6,8 km/h (2 Bft) 100,00 %
26.07.2018 18:14 34,4 C 34,4 C 32,2 C 42 % 1009,9 hPa 0,0 l/m 0 min 0 min 127 W/m 2,3 km/h (1 Bft) 100,00 %
26.07.2018 18:16 34,4 C 33,9 C 32,2 C 42 % 1010,0 hPa 0,0 l/m 0 min 0 min 112 W/m 4,5 km/h (1 Bft) 100,00 %
26.07.2018 18:18 34,4 C 33,9 C 31,7 C 43 % 1009,9 hPa 0,0 l/m 0 min 0 min 101 W/m 4,5 km/h (1 Bft) 100,00 %
26.07.2018 18:20 34,4 C 33,3 C 31,1 C 43 % 1010,0 hPa 0,0 l/m 0 min 0 min 93 W/m 4,5 km/h (1 Bft) 96,15 %
26.07.2018 18:22 34,4 C 33,3 C 31,1 C 41 % 1010,0 hPa 0,0 l/m 0 min 0 min 88 W/m 11,3 km/h (2 Bft) 97,56 %
26.07.2018 18:24 34,4 C 33,3 C 31,1 C 41 % 1010,0 hPa 0,0 l/m 0 min 0 min 84 W/m 6,8 km/h (2 Bft) 97,87 %
26.07.2018 18:26 34,4 C 32,8 C 31,1 C 41 % 1010,1 hPa 0,0 l/m 0 min 0 min 83 W/m 6,8 km/h (2 Bft) 97,87 %
26.07.2018 18:28 34,4 C 32,8 C 31,1 C 41 % 1010,0 hPa 0,0 l/m 0 min 0 min 83 W/m 6,8 km/h (2 Bft) 97,87 %
26.07.2018 18:30 34,4 C 32,8 C 31,1 C 41 % 1010,0 hPa 0,0 l/m 0 min 0 min 81 W/m 6,8 km/h (2 Bft) 95,74 %
26.07.2018 18:32 34,4 C 32,8 C 30,6 C 41 % 1010,0 hPa 0,0 l/m 0 min 0 min 81 W/m 4,5 km/h (1 Bft) 96,23 %
26.07.2018 18:34 34,4 C 32,8 C 30,6 C 42 % 1010,1 hPa 0,0 l/m 0 min 0 min 81 W/m 6,8 km/h (2 Bft) 97,50 %
26.07.2018 18:36 34,3 C 32,8 C 30,6 C 41 % 1010,1 hPa 0,0 l/m 0 min 0 min 83 W/m 6,8 km/h (2 Bft) 96,23 %
26.07.2018 18:38 34,3 C 32,8 C 30,6 C 41 % 1010,1 hPa 0,0 l/m 0 min 0 min 83 W/m 6,8 km/h (2 Bft) 97,56 %
26.07.2018 18:40 34,3 C 32,8 C 30,6 C 41 % 1010,1 hPa 0,0 l/m 0 min 0 min 83 W/m 9,0 km/h (2 Bft) 97,87 %
26.07.2018 18:42 34,2 C 32,8 C 30,6 C 41 % 1010,1 hPa 0,0 l/m 0 min 0 min 83 W/m 6,8 km/h (2 Bft) 97,87 %
26.07.2018 18:44 34,2 C 32,8 C 30,6 C 41 % 1010,2 hPa 0,0 l/m 0 min 0 min 83 W/m 6,8 km/h (2 Bft) 97,87 %
26.07.2018 18:46 34,2 C 32,8 C 30,0 C 41 % 1010,2 hPa 0,0 l/m 0 min 0 min 83 W/m 4,5 km/h (1 Bft) 98,08 %
26.07.2018 18:48 34,1 C 32,2 C 30,0 C 42 % 1010,1 hPa 0,0 l/m 0 min 0 min 83 W/m 4,5 km/h (1 Bft) 97,56 %
26.07.2018 18:50 34,1 C 32,2 C 30,0 C 42 % 1010,1 hPa 0,0 l/m 0 min 0 min 84 W/m 4,5 km/h (1 Bft) 98,11 %
26.07.2018 18:52 34,0 C 32,2 C 30,0 C 45 % 1010,1 hPa 0,0 l/m 0 min 0 min 85 W/m 4,5 km/h (1 Bft) 98,04 %
26.07.2018 18:54 33,9 C 32,2 C 30,0 C 46 % 1010,1 hPa 0,0 l/m 0 min 0 min 86 W/m 0,0 km/h (0 Bft) 97,83 %
26.07.2018 18:56 33,9 C 31,7 C 29,4 C 47 % 1010,0 hPa 0,0 l/m 0 min 0 min 86 W/m 0,0 km/h (0 Bft) 97,87 %
26.07.2018 18:58 33,8 C 31,7 C 29,4 C 47 % 1010,0 hPa 0,0 l/m 0 min 0 min 86 W/m 2,3 km/h (1 Bft) 97,87 %
26.07.2018 19:00 33,8 C 31,1 C 29,4 C 48 % 1010,0 hPa 0,0 l/m 0 min 0 min 86 W/m 0,0 km/h (0 Bft) 95,74 %
26.07.2018 19:02 33,7 C 31,1 C 28,9 C 47 % 1010,0 hPa 0,0 l/m 0 min 0 min 86 W/m 0,0 km/h (0 Bft) 100,00 %
26.07.2018 19:04 33,6 C 31,1 C 28,9 C 49 % 1010,0 hPa 0,0 l/m 0 min 0 min 87 W/m 0,0 km/h (0 Bft) 97,87 %
26.07.2018 19:06 33,5 C 31,1 C 28,9 C 48 % 1010,1 hPa 0,0 l/m 0 min 0 min 88 W/m 0,0 km/h (0 Bft) 97,87 %
26.07.2018 19:08 33,4 C 31,1 C 28,9 C 47 % 1010,0 hPa 0,0 l/m 0 min 0 min 88 W/m 0,0 km/h (0 Bft) 97,87 %
26.07.2018 19:10 33,3 C 31,1 C 28,9 C 46 % 1010,1 hPa 0,0 l/m 0 min 0 min 88 W/m 0,0 km/h (0 Bft) 97,83 %
26.07.2018 19:12 33,3 C 31,1 C 28,3 C 47 % 1010,2 hPa 0,0 l/m 0 min 0 min 87 W/m 4,5 km/h (1 Bft) 95,74 %
26.07.2018 19:14 33,2 C 31,1 C 28,3 C 44 % 1010,2 hPa 0,0 l/m 0 min 0 min 83 W/m 2,3 km/h (1 Bft) 100,00 %
26.07.2018 19:16 33,1 C 31,1 C 28,3 C 44 % 1010,2 hPa 0,0 l/m 0 min 0 min 79 W/m 0,0 km/h (0 Bft) 100,00 %
26.07.2018 19:18 33,1 C 31,7 C 28,3 C 44 % 1010,3 hPa 0,0 l/m 0 min 0 min 75 W/m 2,3 km/h (1 Bft) 100,00 %
26.07.2018 19:20 33,0 C 31,7 C 28,3 C 44 % 1010,3 hPa 0,0 l/m 0 min 0 min 71 W/m 2,3 km/h (1 Bft) 97,87 %
26.07.2018 19:22 32,9 C 31,7 C 29,4 C 44 % 1010,3 hPa 0,0 l/m 0 min 0 min 69 W/m 4,5 km/h (1 Bft) 100,00 %
26.07.2018 19:24 32,9 C 31,7 C 30,0 C 44 % 1010,3 hPa 0,0 l/m 0 min 0 min 69 W/m 9,0 km/h (2 Bft) 97,87 %
26.07.2018 19:26 32,8 C 31,7 C 30,6 C 45 % 1010,3 hPa 0,0 l/m 0 min 0 min 70 W/m 4,5 km/h (1 Bft) 97,87 %
26.07.2018 19:28 32,7 C 31,7 C 30,6 C 45 % 1010,3 hPa 0,0 l/m 0 min 0 min 71 W/m 6,8 km/h (2 Bft) 95,74 %
26.07.2018 19:30 32,7 C 31,7 C 30,6 C 45 % 1010,3 hPa 0,0 l/m 0 min 0 min 73 W/m 6,8 km/h (2 Bft) 95,74 %
26.07.2018 19:32 32,6 C 31,7 C 30,6 C 46 % 1010,3 hPa 0,0 l/m 0 min 0 min 74 W/m 6,8 km/h (2 Bft) 97,87 %
26.07.2018 19:34 32,6 C 31,7 C 30,6 C 45 % 1010,3 hPa 0,0 l/m 0 min 0 min 76 W/m 6,8 km/h (2 Bft) 97,83 %
26.07.2018 19:36 32,5 C 31,7 C 30,0 C 46 % 1010,3 hPa 0,0 l/m 0 min 0 min 76 W/m 2,3 km/h (1 Bft) 97,87 %
26.07.2018 19:38 32,5 C 31,1 C 30,0 C 46 % 1010,3 hPa 0,0 l/m 0 min 0 min 74 W/m 2,3 km/h (1 Bft) 97,87 %
26.07.2018 19:40 32,4 C 31,1 C 30,0 C 46 % 1010,4 hPa 0,0 l/m 0 min 0 min 74 W/m 9,0 km/h (2 Bft) 97,87 %
26.07.2018 19:42 32,4 C 31,1 C 30,0 C 46 % 1010,2 hPa 0,0 l/m 0 min 0 min 72 W/m 4,5 km/h (1 Bft) 97,87 %
26.07.2018 19:44 32,4 C 31,1 C 30,0 C 46 % 1010,3 hPa 0,0 l/m 0 min 0 min 72 W/m 4,5 km/h (1 Bft) 95,74 %
26.07.2018 19:46 32,3 C 31,1 C 30,0 C 46 % 1010,3 hPa 0,0 l/m 0 min 0 min 70 W/m 6,8 km/h (2 Bft) 95,65 %
26.07.2018 19:48 32,2 C 31,1 C 30,0 C 46 % 1010,2 hPa 0,0 l/m 0 min 0 min 70 W/m 4,5 km/h (1 Bft) 97,87 %
26.07.2018 19:50 32,2 C 30,6 C 30,0 C 47 % 1010,2 hPa 0,0 l/m 0 min 0 min 69 W/m 2,3 km/h (1 Bft) 97,87 %
26.07.2018 19:52 32,1 C 30,6 C 29,4 C 47 % 1010,1 hPa 0,0 l/m 0 min 0 min 68 W/m 6,8 km/h (2 Bft) 96,36 %
26.07.2018 19:54 32,1 C 30,6 C 29,4 C 47 % 1010,2 hPa 0,0 l/m 0 min 0 min 67 W/m 4,5 km/h (1 Bft) 97,83 %
26.07.2018 19:56 32,0 C 30,6 C 29,4 C 47 % 1010,2 hPa 0,0 l/m 0 min 0 min 66 W/m 4,5 km/h (1 Bft) 97,87 %
26.07.2018 19:58 31,9 C 30,6 C 28,9 C 48 % 1010,2 hPa 0,0 l/m 0 min 0 min 65 W/m 4,5 km/h (1 Bft) 95,74 %
26.07.2018 20:00 31,8 C 30,6 C 28,9 C 48 % 1010,2 hPa 0,0 l/m 0 min 0 min 65 W/m 4,5 km/h (1 Bft) 95,74 %
26.07.2018 20:02 31,8 C 30,0 C 28,9 C 49 % 1010,2 hPa 0,0 l/m 0 min 0 min 65 W/m 4,5 km/h (1 Bft) 97,96 %
26.07.2018 20:04 31,7 C 30,0 C 28,3 C 50 % 1010,2 hPa 0,0 l/m 0 min 0 min 65 W/m 6,8 km/h (2 Bft) 100,00 %
26.07.2018 20:06 31,7 C 30,0 C 28,3 C 50 % 1010,2 hPa 0,0 l/m 0 min 0 min 65 W/m 4,5 km/h (1 Bft) 100,00 %
26.07.2018 20:08 31,6 C 30,0 C 28,3 C 50 % 1010,3 hPa 0,0 l/m 0 min 0 min 63 W/m 9,0 km/h (2 Bft) 95,65 %
26.07.2018 20:10 31,6 C 29,4 C 27,8 C 50 % 1010,2 hPa 0,0 l/m 0 min 0 min 63 W/m 4,5 km/h (1 Bft) 97,87 %
26.07.2018 20:12 31,5 C 29,4 C 27,8 C 50 % 1010,2 hPa 0,0 l/m 0 min 0 min 62 W/m 4,5 km/h (1 Bft) 95,74 %
26.07.2018 20:14 31,4 C 29,4 C 27,8 C 50 % 1010,2 hPa 0,0 l/m 0 min 0 min 62 W/m 2,3 km/h (1 Bft) 97,87 %
26.07.2018 20:16 31,4 C 29,4 C 27,8 C 49 % 1010,3 hPa 0,0 l/m 0 min 0 min 60 W/m 6,8 km/h (2 Bft) 97,87 %
26.07.2018 20:18 31,3 C 29,4 C 27,8 C 50 % 1010,3 hPa 0,0 l/m 0 min 0 min 60 W/m 2,3 km/h (1 Bft) 95,74 %
26.07.2018 20:20 31,2 C 29,4 C 27,8 C 51 % 1010,2 hPa 0,0 l/m 0 min 0 min 58 W/m 0,0 km/h (0 Bft) 97,83 %
26.07.2018 20:22 31,2 C 29,4 C 27,2 C 52 % 1010,3 hPa 0,0 l/m 0 min 0 min 58 W/m 0,0 km/h (0 Bft) 97,87 %
26.07.2018 20:24 31,1 C 29,4 C 27,2 C 54 % 1010,2 hPa 0,0 l/m 0 min 0 min 56 W/m 0,0 km/h (0 Bft) 100,00 %
26.07.2018 20:26 31,1 C 28,9 C 26,7 C 54 % 1010,3 hPa 0,0 l/m 0 min 0 min 54 W/m 0,0 km/h (0 Bft) 97,87 %
26.07.2018 20:28 31,0 C 28,9 C 26,7 C 55 % 1010,2 hPa 0,0 l/m 0 min 0 min 53 W/m 2,3 km/h (1 Bft) 97,87 %
26.07.2018 20:30 30,9 C 28,9 C 26,7 C 54 % 1010,3 hPa 0,0 l/m 0 min 0 min 51 W/m 4,5 km/h (1 Bft) 97,87 %
26.07.2018 20:32 30,8 C 28,9 C 26,7 C 52 % 1010,3 hPa 0,0 l/m 0 min 0 min 49 W/m 6,8 km/h (2 Bft) 97,83 %
26.07.2018 20:34 30,8 C 28,9 C 26,7 C 52 % 1010,3 hPa 0,0 l/m 0 min 0 min 48 W/m 4,5 km/h (1 Bft) 97,87 %
26.07.2018 20:36 30,7 C 28,9 C 26,7 C 52 % 1010,4 hPa 0,0 l/m 0 min 0 min 46 W/m 6,8 km/h (2 Bft) 97,87 %
26.07.2018 20:38 30,7 C 28,9 C 26,7 C 52 % 1010,5 hPa 0,0 l/m 0 min 0 min 44 W/m 4,5 km/h (1 Bft) 97,87 %
26.07.2018 20:40 30,7 C 28,9 C 26,7 C 53 % 1010,5 hPa 0,0 l/m 0 min 0 min 42 W/m 4,5 km/h (1 Bft) 97,87 %
26.07.2018 20:42 30,6 C 28,9 C 26,7 C 52 % 1010,6 hPa 0,0 l/m 0 min 0 min 40 W/m 2,3 km/h (1 Bft) 95,74 %
26.07.2018 20:44 30,6 C 28,9 C 26,7 C 52 % 1010,6 hPa 0,0 l/m 0 min 0 min 38 W/m 0,0 km/h (0 Bft) 97,83 %
26.07.2018 20:46 30,5 C 28,9 C 26,7 C 52 % 1010,5 hPa 0,0 l/m 0 min 0 min 36 W/m 2,3 km/h (1 Bft) 97,96 %
26.07.2018 20:48 30,5 C 28,9 C 26,7 C 52 % 1010,5 hPa 0,0 l/m 0 min 0 min 34 W/m 0,0 km/h (0 Bft) 97,87 %
26.07.2018 20:50 30,4 C 28,9 C 26,1 C 53 % 1010,7 hPa 0,0 l/m 0 min 0 min 33 W/m 4,5 km/h (1 Bft) 97,87 %
26.07.2018 20:52 30,4 C 28,3 C 26,1 C 53 % 1010,6 hPa 0,0 l/m 0 min 0 min 30 W/m 2,3 km/h (1 Bft) 97,87 %
26.07.2018 20:54 30,3 C 28,3 C 26,1 C 55 % 1010,6 hPa 0,0 l/m 0 min 0 min 28 W/m 0,0 km/h (0 Bft) 97,83 %
26.07.2018 20:56 30,3 C 28,3 C 26,1 C 57 % 1010,6 hPa 0,0 l/m 0 min 0 min 26 W/m 2,3 km/h (1 Bft) 97,87 %
26.07.2018 20:58 30,2 C 28,3 C 26,1 C 57 % 1010,7 hPa 0,0 l/m 0 min 0 min 24 W/m 0,0 km/h (0 Bft) 97,87 %
26.07.2018 21:00 30,2 C 27,8 C 26,1 C 57 % 1010,7 hPa 0,0 l/m 0 min 0 min 21 W/m 0,0 km/h (0 Bft) 97,87 %
26.07.2018 21:02 30,1 C 27,8 C 25,6 C 57 % 1010,7 hPa 0,0 l/m 0 min 0 min 19 W/m 0,0 km/h (0 Bft) 97,87 %
26.07.2018 21:04 30,1 C 27,8 C 25,6 C 57 % 1010,6 hPa 0,0 l/m 0 min 0 min 16 W/m 0,0 km/h (0 Bft) 95,74 %
26.07.2018 21:06 30,0 C 27,8 C 25,6 C 57 % 1010,7 hPa 0,0 l/m 0 min 0 min 14 W/m 0,0 km/h (0 Bft) 94,34 %
26.07.2018 21:08 29,9 C 27,8 C 25,6 C 58 % 1010,7 hPa 0,0 l/m 0 min 0 min 13 W/m 0,0 km/h (0 Bft) 95,74 %
26.07.2018 21:10 29,8 C 27,2 C 25,0 C 57 % 1010,7 hPa 0,0 l/m 0 min 0 min 11 W/m 0,0 km/h (0 Bft) 97,87 %
26.07.2018 21:12 29,8 C 27,2 C 25,0 C 57 % 1010,7 hPa 0,0 l/m 0 min 0 min 11 W/m 0,0 km/h (0 Bft) 97,87 %
26.07.2018 21:14 29,7 C 27,2 C 25,0 C 56 % 1010,7 hPa 0,0 l/m 0 min 0 min 9 W/m 0,0 km/h (0 Bft) 97,87 %
26.07.2018 21:16 29,7 C 27,2 C 25,0 C 57 % 1010,7 hPa 0,0 l/m 0 min 0 min 9 W/m 0,0 km/h (0 Bft) 97,83 %
26.07.2018 21:18 29,6 C 27,2 C 25,0 C 58 % 1010,7 hPa 0,0 l/m 0 min 0 min 7 W/m 0,0 km/h (0 Bft) 97,87 %
26.07.2018 21:20 29,5 C 27,2 C 24,4 C 59 % 1010,7 hPa 0,0 l/m 0 min 0 min 5 W/m 0,0 km/h (0 Bft) 97,87 %
26.07.2018 21:22 29,4 C 27,2 C 24,4 C 59 % 1010,7 hPa 0,0 l/m 0 min 0 min 5 W/m 0,0 km/h (0 Bft) 97,37 %
26.07.2018 21:24 29,4 C 27,2 C 24,4 C 59 % 1010,7 hPa 0,0 l/m 0 min 0 min 4 W/m 0,0 km/h (0 Bft) 95,74 %
26.07.2018 21:26 29,3 C 26,7 C 24,4 C 59 % 1010,7 hPa 0,0 l/m 0 min 0 min 0 W/m 0,0 km/h (0 Bft) 95,74 %
26.07.2018 21:28 29,2 C 26,7 C 24,4 C 59 % 1010,8 hPa 0,0 l/m 0 min 0 min 0 W/m 0,0 km/h (0 Bft) 95,74 %
26.07.2018 21:30 29,2 C 26,7 C 24,4 C 60 % 1010,8 hPa 0,0 l/m 0 min 0 min 0 W/m 0,0 km/h (0 Bft) 95,65 %
26.07.2018 21:32 29,1 C 26,7 C 24,4 C 59 % 1010,8 hPa 0,0 l/m 0 min 0 min 0 W/m 0,0 km/h (0 Bft) 97,87 %
26.07.2018 21:34 29,0 C 26,7 C 24,4 C 60 % 1010,8 hPa 0,0 l/m 0 min 0 min 0 W/m 0,0 km/h (0 Bft) 97,87 %
26.07.2018 21:36 28,9 C 26,7 C 24,4 C 59 % 1010,9 hPa 0,0 l/m 0 min 0 min 0 W/m 0,0 km/h (0 Bft) 100,00 %
26.07.2018 21:38 28,9 C 26,7 C 24,4 C 59 % 1010,9 hPa 0,0 l/m 0 min 0 min 0 W/m 0,0 km/h (0 Bft) 97,87 %
26.07.2018 21:40 28,8 C 26,7 C 24,4 C 60 % 1010,9 hPa 0,0 l/m 0 min 0 min 0 W/m 0,0 km/h (0 Bft) 95,74 %
26.07.2018 21:42 28,8 C 26,7 C 24,4 C 60 % 1010,9 hPa 0,0 l/m 0 min 0 min 0 W/m 0,0 km/h (0 Bft) 97,83 %
26.07.2018 21:44 28,7 C 26,7 C 24,4 C 60 % 1010,9 hPa 0,0 l/m 0 min 0 min 0 W/m 0,0 km/h (0 Bft) 97,87 %
26.07.2018 21:46 28,6 C 26,1 C 24,4 C 60 % 1010,9 hPa 0,0 l/m 0 min 0 min 0 W/m 0,0 km/h (0 Bft) 93,75 %
26.07.2018 21:48 28,6 C 26,1 C 24,4 C 60 % 1010,9 hPa 0,0 l/m 0 min 0 min 0 W/m 0,0 km/h (0 Bft) 95,74 %
26.07.2018 21:50 28,5 C 26,1 C 24,4 C 61 % 1010,9 hPa 0,0 l/m 0 min 0 min 0 W/m 0,0 km/h (0 Bft) 95,74 %
26.07.2018 21:52 28,4 C 26,1 C 24,4 C 62 % 1010,8 hPa 0,0 l/m 0 min 0 min 0 W/m 0,0 km/h (0 Bft) 95,74 %
26.07.2018 21:54 28,4 C 26,1 C 24,4 C 62 % 1010,9 hPa 0,0 l/m 0 min 0 min 0 W/m 0,0 km/h (0 Bft) 95,24 %
26.07.2018 21:56 28,3 C 26,1 C 24,4 C 62 % 1010,9 hPa 0,0 l/m 0 min 0 min 0 W/m 0,0 km/h (0 Bft) 95,74 %
26.07.2018 21:58 28,3 C 26,1 C 23,9 C 63 % 1010,9 hPa 0,0 l/m 0 min 0 min 0 W/m 0,0 km/h (0 Bft) 95,74 %
26.07.2018 22:00 28,2 C 26,1 C 23,9 C 63 % 1010,9 hPa 0,0 l/m 0 min 0 min 0 W/m 0,0 km/h (0 Bft) 95,74 %
26.07.2018 22:02 28,1 C 26,1 C 23,9 C 63 % 1010,9 hPa 0,0 l/m 0 min 0 min 0 W/m 0,0 km/h (0 Bft) 93,62 %
26.07.2018 22:04 28,1 C 26,1 C 23,9 C 63 % 1010,9 hPa 0,0 l/m 0 min 0 min 0 W/m 0,0 km/h (0 Bft) 93,88 %
26.07.2018 22:06 28,0 C 26,1 C 23,9 C 62 % 1010,9 hPa 0,0 l/m 0 min 0 min 0 W/m 0,0 km/h (0 Bft) 96,00 %
26.07.2018 22:08 27,9 C 26,1 C 23,9 C 63 % 1010,9 hPa 0,0 l/m 0 min 0 min 0 W/m 0,0 km/h (0 Bft) 95,74 %
26.07.2018 22:10 27,9 C 25,6 C 23,9 C 64 % 1010,9 hPa 0,0 l/m 0 min 0 min 0 W/m 0,0 km/h (0 Bft) 93,62 %
26.07.2018 22:12 27,8 C 25,6 C 23,9 C 63 % 1010,8 hPa 0,0 l/m 0 min 0 min 0 W/m 0,0 km/h (0 Bft) 95,74 %
26.07.2018 22:14 27,7 C 25,6 C 23,9 C 63 % 1010,9 hPa 0,0 l/m 0 min 0 min 0 W/m 0,0 km/h (0 Bft) 95,74 %
26.07.2018 22:16 27,7 C 25,6 C 23,9 C 62 % 1010,9 hPa 0,0 l/m 0 min 0 min 0 W/m 0,0 km/h (0 Bft) 95,65 %
26.07.2018 22:18 27,6 C 25,6 C 23,9 C 62 % 1010,8 hPa 0,0 l/m 0 min 0 min 0 W/m 0,0 km/h (0 Bft) 97,87 %
26.07.2018 22:20 27,6 C 25,6 C 23,9 C 63 % 1010,8 hPa 0,0 l/m 0 min 0 min 0 W/m 0,0 km/h (0 Bft) 95,74 %
26.07.2018 22:22 27,5 C 25,6 C 23,9 C 64 % 1010,8 hPa 0,0 l/m 0 min 0 min 0 W/m 2,3 km/h (1 Bft) 97,92 %
26.07.2018 22:24 27,4 C 25,6 C 23,9 C 64 % 1010,8 hPa 0,0 l/m 0 min 0 min 0 W/m 2,3 km/h (1 Bft) 97,87 %
26.07.2018 22:26 27,4 C 25,6 C 23,9 C 64 % 1010,8 hPa 0,0 l/m 0 min 0 min 0 W/m 0,0 km/h (0 Bft) 95,74 %
26.07.2018 22:28 27,3 C 25,0 C 23,3 C 63 % 1010,8 hPa 0,0 l/m 0 min 0 min 0 W/m 0,0 km/h (0 Bft) 97,83 %
26.07.2018 22:30 27,2 C 25,0 C 23,3 C 64 % 1010,8 hPa 0,0 l/m 0 min 0 min 0 W/m 0,0 km/h (0 Bft) 97,87 %
26.07.2018 22:32 27,2 C 25,0 C 23,3 C 65 % 1010,8 hPa 0,0 l/m 0 min 0 min 0 W/m 0,0 km/h (0 Bft) 97,14 %
26.07.2018 22:34 27,1 C 25,0 C 23,3 C 65 % 1010,8 hPa 0,0 l/m 0 min 0 min 0 W/m 0,0 km/h (0 Bft) 100,00 %
26.07.2018 22:36 27,1 C 25,0 C 23,3 C 64 % 1010,7 hPa 0,0 l/m 0 min 0 min 0 W/m 0,0 km/h (0 Bft) 96,36 %
26.07.2018 22:38 27,0 C 25,0 C 23,3 C 64 % 1010,7 hPa 0,0 l/m 0 min 0 min 0 W/m 0,0 km/h (0 Bft) 100,00 %
26.07.2018 22:40 26,9 C 25,0 C 23,3 C 64 % 1010,7 hPa 0,0 l/m 0 min 0 min 0 W/m 0,0 km/h (0 Bft) 93,48 %
26.07.2018 22:42 26,9 C 24,4 C 23,3 C 65 % 1010,7 hPa 0,0 l/m 0 min 0 min 0 W/m 0,0 km/h (0 Bft) 100,00 %
26.07.2018 22:44 26,8 C 24,4 C 23,3 C 65 % 1010,7 hPa 0,0 l/m 0 min 0 min 0 W/m 0,0 km/h (0 Bft) 100,00 %
26.07.2018 22:46 26,8 C 24,4 C 23,3 C 66 % 1010,8 hPa 0,0 l/m 0 min 0 min 0 W/m 0,0 km/h (0 Bft) 100,00 %
26.07.2018 22:48 26,7 C 24,4 C 23,3 C 66 % 1010,8 hPa 0,0 l/m 0 min 0 min 0 W/m 0,0 km/h (0 Bft) 100,00 %
26.07.2018 22:50 26,7 C 24,4 C 23,3 C 67 % 1010,8 hPa 0,0 l/m 0 min 0 min 0 W/m 0,0 km/h (0 Bft) 100,00 %
26.07.2018 22:52 26,6 C 23,9 C 23,3 C 66 % 1010,8 hPa 0,0 l/m 0 min 0 min 0 W/m 0,0 km/h (0 Bft) 100,00 %
26.07.2018 22:54 26,5 C 23,9 C 23,3 C 66 % 1010,8 hPa 0,0 l/m 0 min 0 min 0 W/m 0,0 km/h (0 Bft) 100,00 %
26.07.2018 22:56 26,4 C 23,9 C 23,3 C 66 % 1010,9 hPa 0,0 l/m 0 min 0 min 0 W/m 0,0 km/h (0 Bft) 100,00 %
26.07.2018 22:58 26,4 C 23,9 C 22,8 C 66 % 1010,9 hPa 0,0 l/m 0 min 0 min 0 W/m 0,0 km/h (0 Bft) 100,00 %
26.07.2018 23:00 26,3 C 23,9 C 22,8 C 66 % 1010,9 hPa 0,0 l/m 0 min 0 min 0 W/m 0,0 km/h (0 Bft) 97,87 %
26.07.2018 23:02 26,2 C 23,9 C 22,8 C 67 % 1010,9 hPa 0,0 l/m 0 min 0 min 0 W/m 0,0 km/h (0 Bft) 100,00 %
26.07.2018 23:04 26,2 C 23,9 C 22,8 C 67 % 1010,9 hPa 0,0 l/m 0 min 0 min 0 W/m 0,0 km/h (0 Bft) 100,00 %
26.07.2018 23:06 26,1 C 23,9 C 22,8 C 67 % 1010,9 hPa 0,0 l/m 0 min 0 min 0 W/m 0,0 km/h (0 Bft) 97,92 %
26.07.2018 23:08 26,0 C 23,3 C 22,8 C 67 % 1010,9 hPa 0,0 l/m 0 min 0 min 0 W/m 0,0 km/h (0 Bft) 100,00 %
26.07.2018 23:10 25,9 C 23,3 C 22,8 C 68 % 1011,0 hPa 0,0 l/m 0 min 0 min 0 W/m 0,0 km/h (0 Bft) 100,00 %
26.07.2018 23:12 25,9 C 23,3 C 22,8 C 68 % 1011,0 hPa 0,0 l/m 0 min 0 min 0 W/m 0,0 km/h (0 Bft) 100,00 %
26.07.2018 23:14 25,8 C 23,3 C 22,8 C 68 % 1011,1 hPa 0,0 l/m 0 min 0 min 0 W/m 0,0 km/h (0 Bft) 100,00 %
26.07.2018 23:16 25,7 C 23,3 C 22,8 C 69 % 1011,0 hPa 0,0 l/m 0 min 0 min 0 W/m 0,0 km/h (0 Bft) 100,00 %
26.07.2018 23:18 25,7 C 23,3 C 22,8 C 69 % 1011,1 hPa 0,0 l/m 0 min 0 min 0 W/m 0,0 km/h (0 Bft) 100,00 %
26.07.2018 23:20 25,6 C 23,3 C 22,8 C 69 % 1011,1 hPa 0,0 l/m 0 min 0 min 0 W/m 0,0 km/h (0 Bft) 100,00 %
26.07.2018 23:22 25,6 C 23,3 C 22,8 C 69 % 1011,1 hPa 0,0 l/m 0 min 0 min 0 W/m 0,0 km/h (0 Bft) 100,00 %
26.07.2018 23:24 25,5 C 23,3 C 22,8 C 69 % 1011,0 hPa 0,0 l/m 0 min 0 min 0 W/m 0,0 km/h (0 Bft) 100,00 %
26.07.2018 23:26 25,4 C 23,3 C 22,8 C 69 % 1011,1 hPa 0,0 l/m 0 min 0 min 0 W/m 0,0 km/h (0 Bft) 100,00 %
26.07.2018 23:28 25,4 C 23,3 C 22,8 C 69 % 1011,1 hPa 0,0 l/m 0 min 0 min 0 W/m 0,0 km/h (0 Bft) 100,00 %
26.07.2018 23:30 25,3 C 23,3 C 22,8 C 69 % 1011,1 hPa 0,0 l/m 0 min 0 min 0 W/m 0,0 km/h (0 Bft) 95,74 %
26.07.2018 23:32 25,3 C 23,3 C 22,8 C 69 % 1011,2 hPa 0,0 l/m 0 min 0 min 0 W/m 0,0 km/h (0 Bft) 97,92 %
26.07.2018 23:34 25,2 C 23,3 C 22,8 C 69 % 1011,1 hPa 0,0 l/m 0 min 0 min 0 W/m 0,0 km/h (0 Bft) 97,87 %
26.07.2018 23:36 25,2 C 23,3 C 22,8 C 69 % 1011,2 hPa 0,0 l/m 0 min 0 min 0 W/m 0,0 km/h (0 Bft) 100,00 %
26.07.2018 23:38 25,1 C 23,3 C 22,8 C 70 % 1011,2 hPa 0,0 l/m 0 min 0 min 0 W/m 0,0 km/h (0 Bft) 100,00 %
26.07.2018 23:40 25,1 C 23,3 C 22,8 C 70 % 1011,2 hPa 0,0 l/m 0 min 0 min 0 W/m 2,3 km/h (1 Bft) 95,74 %
26.07.2018 23:42 25,1 C 23,3 C 22,8 C 70 % 1011,2 hPa 0,0 l/m 0 min 0 min 0 W/m 4,5 km/h (1 Bft) 97,87 %
26.07.2018 23:44 24,9 C 23,3 C 22,8 C 70 % 1011,2 hPa 0,0 l/m 0 min 0 min 0 W/m 2,3 km/h (1 Bft) 100,00 %
26.07.2018 23:46 24,9 C 23,3 C 22,8 C 69 % 1011,2 hPa 0,0 l/m 0 min 0 min 0 W/m 4,5 km/h (1 Bft) 100,00 %
26.07.2018 23:48 24,9 C 23,3 C 22,8 C 69 % 1011,2 hPa 0,0 l/m 0 min 0 min 0 W/m 4,5 km/h (1 Bft) 100,00 %
26.07.2018 23:50 24,8 C 23,3 C 22,8 C 70 % 1011,2 hPa 0,0 l/m 0 min 0 min 0 W/m 2,3 km/h (1 Bft) 95,65 %
26.07.2018 23:52 24,8 C 23,3 C 22,8 C 70 % 1011,2 hPa 0,0 l/m 0 min 0 min 0 W/m 2,3 km/h (1 Bft) 97,87 %
26.07.2018 23:54 24,7 C 23,3 C 22,8 C 70 % 1011,2 hPa 0,0 l/m 0 min 0 min 0 W/m 2,3 km/h (1 Bft) 97,87 %
26.07.2018 23:56 24,7 C 23,3 C 22,8 C 70 % 1011,2 hPa 0,0 l/m 0 min 0 min 0 W/m 0,0 km/h (0 Bft) 93,62 %
26.07.2018 23:58 24,7 C 23,3 C 22,8 C 70 % 1011,2 hPa 0,0 l/m 0 min 0 min 0 W/m 0,0 km/h (0 Bft) 97,87 %
_ Min-Zeit 06:44 05:28 05:32 15:22 18:02 - - - - 00:50 00:02
Minimum _ 19,9 C 18,9 C 18,9 C 36 % 1009,9 hPa - - - - 0,0 km/h (0 Bft) 11,76 %
_ Max-Zeit 16:02 12:14 15:48 07:48 00:02 00:00 12:08 16:28 15:52 17:10 00:12
Maximum _ 37,2 C 43,3 C 33,9 C 92 % 1013,1 hPa 0,0 l/m 4 min 2 min 899 W/m 22,5 km/h
SO (4 Bft)
100,00 %
Durchschnitt _ 28,0 C 28,5 C 25,5 C 63 % 1011,8 hPa #0,0 l/m #7:46 h #12 min. 379 W/m 4,1 km/h (1 Bft) 97,54 %
© 2018 W. Hausmann